Wetterdaten: Donnerstag, 27.01.2022
Datum Zeit Temp. Aussen Temp. o. S. Temp +5cm Feuchte Auss Luftdruck Regen Sonnenschein Regendauer Solar Windben Empfang
27.01.2022 00:00 3,0 C 2,8 C 0,0 C 91 % 1030,1 hPa 0,0 l/m 0 min 0 min 0 W/m 16,1 km/h (3 Bft) 100,00 %
27.01.2022 00:02 3,0 C 2,2 C 0,0 C 91 % 1030,2 hPa 0,0 l/m 0 min 0 min 0 W/m 3,2 km/h (1 Bft) 5,26 %
27.01.2022 00:04 3,0 C 2,2 C 0,0 C 91 % 1030,1 hPa 0,0 l/m 0 min 0 min 0 W/m 6,4 km/h (2 Bft) 92,31 %
27.01.2022 00:08 2,9 C 2,2 C 0,0 C 91 % 1030,1 hPa 0,0 l/m 0 min 0 min 0 W/m 19,3 km/h (3 Bft) 100,00 %
27.01.2022 00:10 2,9 C 2,2 C 0,0 C 91 % 1030,1 hPa 0,0 l/m 0 min 0 min 0 W/m 12,9 km/h (3 Bft) 100,00 %
27.01.2022 00:12 2,9 C 2,2 C 0,0 C 91 % 1030,1 hPa 0,0 l/m 0 min 0 min 0 W/m 22,5 km/h (4 Bft) 97,87 %
27.01.2022 00:14 2,9 C 2,2 C 0,0 C 91 % 1030,1 hPa 0,0 l/m 0 min 0 min 0 W/m 22,5 km/h (4 Bft) 100,00 %
27.01.2022 00:16 2,9 C 2,2 C 0,0 C 91 % 1030,1 hPa 0,0 l/m 0 min 0 min 0 W/m 22,5 km/h (4 Bft) 100,00 %
27.01.2022 00:18 2,9 C 2,2 C 0,0 C 91 % 1030,1 hPa 0,0 l/m 0 min 0 min 0 W/m 16,1 km/h (3 Bft) 100,00 %
27.01.2022 00:20 2,9 C 2,2 C 0,0 C 91 % 1029,9 hPa 0,0 l/m 0 min 0 min 0 W/m 12,9 km/h (3 Bft) 100,00 %
27.01.2022 00:22 2,9 C 2,2 C 0,0 C 91 % 1030,0 hPa 0,0 l/m 0 min 0 min 0 W/m 9,7 km/h (2 Bft) 100,00 %
27.01.2022 00:24 2,9 C 2,2 C 0,0 C 91 % 1030,0 hPa 0,0 l/m 0 min 0 min 0 W/m 16,1 km/h (3 Bft) 100,00 %
27.01.2022 00:26 2,9 C 2,2 C 0,0 C 91 % 1029,9 hPa 0,0 l/m 0 min 0 min 0 W/m 6,4 km/h (2 Bft) 97,87 %
27.01.2022 00:28 2,9 C 2,2 C 0,0 C 91 % 1030,0 hPa 0,0 l/m 0 min 0 min 0 W/m 6,4 km/h (2 Bft) 100,00 %
27.01.2022 00:30 2,9 C 2,2 C 0,0 C 91 % 1030,0 hPa 0,0 l/m 0 min 0 min 0 W/m 19,3 km/h (3 Bft) 100,00 %
27.01.2022 00:32 2,9 C 2,2 C 0,0 C 91 % 1030,0 hPa 0,0 l/m 0 min 0 min 0 W/m 16,1 km/h (3 Bft) 100,00 %
27.01.2022 00:34 2,9 C 2,2 C 0,0 C 91 % 1030,0 hPa 0,0 l/m 0 min 0 min 0 W/m 19,3 km/h (3 Bft) 100,00 %
27.01.2022 00:36 2,9 C 2,2 C 0,0 C 91 % 1029,9 hPa 0,0 l/m 0 min 0 min 0 W/m 19,3 km/h (3 Bft) 95,74 %
27.01.2022 00:38 2,9 C 2,2 C 0,0 C 91 % 1029,9 hPa 0,0 l/m 0 min 0 min 0 W/m 16,1 km/h (3 Bft) 100,00 %
27.01.2022 00:40 2,9 C 2,2 C 0,0 C 91 % 1029,8 hPa 0,0 l/m 0 min 0 min 0 W/m 16,1 km/h (3 Bft) 97,87 %
27.01.2022 00:42 2,9 C 2,2 C 0,0 C 91 % 1029,8 hPa 0,0 l/m 0 min 0 min 0 W/m 12,9 km/h (3 Bft) 97,87 %
27.01.2022 00:44 2,9 C 2,2 C 0,0 C 91 % 1029,8 hPa 0,0 l/m 0 min 0 min 0 W/m 25,7 km/h (4 Bft) 97,83 %
27.01.2022 00:46 2,9 C 2,2 C 0,0 C 91 % 1029,8 hPa 0,0 l/m 0 min 0 min 0 W/m 22,5 km/h (4 Bft) 95,74 %
27.01.2022 00:48 2,9 C 2,8 C 0,0 C 91 % 1029,8 hPa 0,0 l/m 0 min 0 min 0 W/m 16,1 km/h (3 Bft) 97,87 %
27.01.2022 00:50 2,9 C 2,8 C 0,0 C 91 % 1029,9 hPa 0,0 l/m 0 min 0 min 0 W/m 19,3 km/h (3 Bft) 97,87 %
27.01.2022 00:52 2,9 C 2,8 C 0,0 C 91 % 1029,8 hPa 0,0 l/m 0 min 0 min 0 W/m 22,5 km/h (4 Bft) 97,87 %
27.01.2022 00:54 2,9 C 2,8 C 0,0 C 90 % 1029,9 hPa 0,0 l/m 0 min 0 min 0 W/m 19,3 km/h (3 Bft) 93,62 %
27.01.2022 00:56 2,9 C 2,8 C 0,0 C 90 % 1029,9 hPa 0,0 l/m 0 min 0 min 0 W/m 12,9 km/h (3 Bft) 95,65 %
27.01.2022 00:58 2,9 C 2,8 C 0,0 C 90 % 1030,0 hPa 0,0 l/m 0 min 0 min 0 W/m 19,3 km/h (3 Bft) 93,62 %
27.01.2022 01:00 2,9 C 2,8 C 0,0 C 90 % 1029,9 hPa 0,0 l/m 0 min 0 min 0 W/m 12,9 km/h (3 Bft) 95,74 %
27.01.2022 01:02 2,9 C 2,8 C 0,0 C 90 % 1029,8 hPa 0,0 l/m 0 min 0 min 0 W/m 25,7 km/h (4 Bft) 95,74 %
27.01.2022 01:04 2,9 C 2,8 C 0,0 C 90 % 1030,0 hPa 0,0 l/m 0 min 0 min 0 W/m 32,2 km/h (5 Bft) 95,74 %
27.01.2022 01:06 2,9 C 2,8 C 0,0 C 89 % 1029,7 hPa 0,0 l/m 0 min 0 min 0 W/m 19,3 km/h (3 Bft) 95,74 %
27.01.2022 01:08 2,9 C 2,8 C 0,0 C 89 % 1029,7 hPa 0,0 l/m 0 min 0 min 0 W/m 12,9 km/h (3 Bft) 93,48 %
27.01.2022 01:10 2,9 C 2,8 C 0,0 C 89 % 1029,8 hPa 0,0 l/m 0 min 0 min 0 W/m 12,9 km/h (3 Bft) 91,49 %
27.01.2022 01:12 2,9 C 2,8 C 0,0 C 89 % 1029,7 hPa 0,0 l/m 0 min 0 min 0 W/m 25,7 km/h (4 Bft) 93,62 %
27.01.2022 01:14 2,9 C 2,2 C 0,0 C 89 % 1029,7 hPa 0,0 l/m 0 min 0 min 0 W/m 12,9 km/h (3 Bft) 93,62 %
27.01.2022 01:16 2,9 C 2,8 C 0,0 C 89 % 1029,7 hPa 0,0 l/m 0 min 0 min 0 W/m 29,0 km/h (5 Bft) 95,74 %
27.01.2022 01:18 2,9 C 2,8 C 0,0 C 89 % 1029,7 hPa 0,0 l/m 0 min 0 min 0 W/m 22,5 km/h (4 Bft) 95,74 %
27.01.2022 01:20 2,9 C 2,8 C 0,0 C 89 % 1029,7 hPa 0,0 l/m 0 min 0 min 0 W/m 22,5 km/h (4 Bft) 95,65 %
27.01.2022 01:22 2,9 C 2,2 C 0,0 C 89 % 1029,7 hPa 0,0 l/m 0 min 0 min 0 W/m 12,9 km/h (3 Bft) 91,49 %
27.01.2022 01:24 2,9 C 2,2 C 0,0 C 89 % 1029,6 hPa 0,0 l/m 0 min 0 min 0 W/m 22,5 km/h (4 Bft) 93,62 %
27.01.2022 01:26 2,9 C 2,2 C 0,0 C 89 % 1029,6 hPa 0,0 l/m 0 min 0 min 0 W/m 22,5 km/h (4 Bft) 91,49 %
27.01.2022 01:28 2,9 C 2,2 C 0,0 C 89 % 1029,5 hPa 0,0 l/m 0 min 0 min 0 W/m 25,7 km/h (4 Bft) 93,62 %
27.01.2022 01:30 2,9 C 2,2 C 0,0 C 89 % 1029,5 hPa 0,0 l/m 0 min 0 min 0 W/m 19,3 km/h (3 Bft) 91,49 %
27.01.2022 01:32 2,9 C 2,2 C 0,0 C 89 % 1029,5 hPa 0,0 l/m 0 min 0 min 0 W/m 22,5 km/h (4 Bft) 93,48 %
27.01.2022 01:34 2,9 C 2,2 C 0,0 C 89 % 1029,4 hPa 0,0 l/m 0 min 0 min 0 W/m 22,5 km/h (4 Bft) 97,87 %
27.01.2022 01:36 2,9 C 2,2 C 0,0 C 89 % 1029,4 hPa 0,0 l/m 0 min 0 min 0 W/m 25,7 km/h (4 Bft) 95,74 %
27.01.2022 01:38 2,9 C 2,2 C 0,0 C 89 % 1029,3 hPa 0,0 l/m 0 min 0 min 0 W/m 22,5 km/h (4 Bft) 97,87 %
27.01.2022 01:40 2,9 C 2,2 C 0,0 C 89 % 1029,3 hPa 0,0 l/m 0 min 0 min 0 W/m 22,5 km/h (4 Bft) 97,87 %
27.01.2022 01:42 2,9 C 2,2 C 0,0 C 89 % 1029,2 hPa 0,0 l/m 0 min 0 min 0 W/m 25,7 km/h (4 Bft) 95,74 %
27.01.2022 01:44 2,9 C 2,2 C 0,0 C 89 % 1029,2 hPa 0,0 l/m 0 min 0 min 0 W/m 22,5 km/h (4 Bft) 97,83 %
27.01.2022 01:46 2,9 C 2,2 C 0,0 C 89 % 1029,1 hPa 0,0 l/m 0 min 0 min 0 W/m 16,1 km/h (3 Bft) 97,87 %
27.01.2022 01:48 2,9 C 2,2 C 0,0 C 89 % 1029,0 hPa 0,0 l/m 0 min 0 min 0 W/m 19,3 km/h (3 Bft) 97,87 %
27.01.2022 01:50 2,9 C 2,2 C 0,0 C 89 % 1028,9 hPa 0,0 l/m 0 min 0 min 0 W/m 19,3 km/h (3 Bft) 97,87 %
27.01.2022 01:52 2,9 C 2,2 C 0,0 C 89 % 1029,1 hPa 0,0 l/m 0 min 0 min 0 W/m 29,0 km/h (5 Bft) 97,87 %
27.01.2022 01:54 2,9 C 2,2 C 0,0 C 89 % 1028,8 hPa 0,0 l/m 0 min 0 min 0 W/m 22,5 km/h (4 Bft) 100,00 %
27.01.2022 01:56 2,9 C 2,2 C 0,0 C 89 % 1028,8 hPa 0,0 l/m 0 min 0 min 0 W/m 25,7 km/h (4 Bft) 100,00 %
27.01.2022 01:58 2,9 C 2,2 C 0,0 C 89 % 1028,7 hPa 0,0 l/m 0 min 0 min 0 W/m 22,5 km/h (4 Bft) 100,00 %
27.01.2022 02:00 2,9 C 2,2 C 0,0 C 89 % 1028,7 hPa 0,0 l/m 0 min 0 min 0 W/m 29,0 km/h (5 Bft) 100,00 %
27.01.2022 02:02 2,9 C 2,2 C 0,0 C 89 % 1028,6 hPa 0,0 l/m 0 min 0 min 0 W/m 25,7 km/h (4 Bft) 100,00 %
27.01.2022 02:04 2,9 C 2,2 C 0,0 C 89 % 1028,6 hPa 0,0 l/m 0 min 0 min 0 W/m 22,5 km/h (4 Bft) 100,00 %
27.01.2022 02:06 2,9 C 2,2 C 0,0 C 89 % 1028,6 hPa 0,0 l/m 0 min 0 min 0 W/m 22,5 km/h (4 Bft) 100,00 %
27.01.2022 02:08 2,9 C 2,2 C 0,0 C 89 % 1028,6 hPa 0,0 l/m 0 min 0 min 0 W/m 19,3 km/h (3 Bft) 100,00 %
27.01.2022 02:10 2,9 C 2,2 C 0,0 C 89 % 1028,5 hPa 0,0 l/m 0 min 0 min 0 W/m 19,3 km/h (3 Bft) 100,00 %
27.01.2022 02:12 2,8 C 2,2 C 0,0 C 89 % 1028,6 hPa 0,0 l/m 0 min 0 min 0 W/m 19,3 km/h (3 Bft) 100,00 %
27.01.2022 02:14 2,8 C 2,2 C 0,0 C 89 % 1028,5 hPa 0,0 l/m 0 min 0 min 0 W/m 22,5 km/h (4 Bft) 100,00 %
27.01.2022 02:16 2,8 C 2,2 C 0,0 C 89 % 1028,5 hPa 0,0 l/m 0 min 0 min 0 W/m 19,3 km/h (3 Bft) 100,00 %
27.01.2022 02:18 2,8 C 2,2 C 0,0 C 89 % 1028,5 hPa 0,0 l/m 0 min 0 min 0 W/m 22,5 km/h (4 Bft) 100,00 %
27.01.2022 02:20 2,8 C 2,2 C 0,0 C 89 % 1028,6 hPa 0,0 l/m 0 min 0 min 0 W/m 22,5 km/h (4 Bft) 100,00 %
27.01.2022 02:22 2,8 C 2,2 C 0,0 C 89 % 1028,6 hPa 0,0 l/m 0 min 0 min 0 W/m 22,5 km/h (4 Bft) 100,00 %
27.01.2022 02:24 2,8 C 2,2 C 0,0 C 89 % 1028,6 hPa 0,0 l/m 0 min 0 min 0 W/m 19,3 km/h (3 Bft) 100,00 %
27.01.2022 02:26 2,8 C 2,2 C 0,0 C 89 % 1028,6 hPa 0,0 l/m 0 min 0 min 0 W/m 29,0 km/h (5 Bft) 100,00 %
27.01.2022 02:28 2,8 C 2,2 C 0,0 C 89 % 1028,7 hPa 0,0 l/m 0 min 0 min 0 W/m 25,7 km/h (4 Bft) 100,00 %
27.01.2022 02:30 2,8 C 2,2 C 0,0 C 89 % 1028,6 hPa 0,0 l/m 0 min 0 min 0 W/m 22,5 km/h (4 Bft) 100,00 %
27.01.2022 02:32 2,7 C 2,2 C 0,0 C 89 % 1028,6 hPa 0,0 l/m 0 min 0 min 0 W/m 29,0 km/h (5 Bft) 100,00 %
27.01.2022 02:34 2,7 C 2,2 C 0,0 C 89 % 1028,6 hPa 0,0 l/m 0 min 0 min 0 W/m 25,7 km/h (4 Bft) 97,87 %
27.01.2022 02:36 2,8 C 2,2 C 0,0 C 89 % 1028,6 hPa 0,0 l/m 0 min 0 min 0 W/m 19,3 km/h (3 Bft) 100,00 %
27.01.2022 02:38 2,8 C 2,2 C 0,0 C 90 % 1028,6 hPa 0,0 l/m 0 min 0 min 0 W/m 22,5 km/h (4 Bft) 100,00 %
27.01.2022 02:40 2,8 C 2,2 C 0,0 C 90 % 1028,6 hPa 0,0 l/m 0 min 0 min 0 W/m 29,0 km/h (5 Bft) 100,00 %
27.01.2022 02:42 2,8 C 2,2 C 0,0 C 90 % 1028,6 hPa 0,0 l/m 0 min 0 min 0 W/m 19,3 km/h (3 Bft) 100,00 %
27.01.2022 02:44 2,8 C 2,2 C 0,0 C 90 % 1028,5 hPa 0,0 l/m 0 min 0 min 0 W/m 12,9 km/h (3 Bft) 100,00 %
27.01.2022 02:46 2,8 C 2,2 C 0,0 C 90 % 1028,5 hPa 0,0 l/m 0 min 0 min 0 W/m 16,1 km/h (3 Bft) 100,00 %
27.01.2022 02:48 2,8 C 2,2 C 0,0 C 90 % 1028,6 hPa 0,0 l/m 0 min 0 min 0 W/m 29,0 km/h (5 Bft) 100,00 %
27.01.2022 02:50 2,8 C 2,2 C 0,0 C 90 % 1028,6 hPa 0,0 l/m 0 min 0 min 0 W/m 22,5 km/h (4 Bft) 100,00 %
27.01.2022 02:52 2,8 C 2,2 C 0,0 C 90 % 1028,5 hPa 0,0 l/m 0 min 0 min 0 W/m 25,7 km/h (4 Bft) 100,00 %
27.01.2022 02:54 2,8 C 2,2 C 0,0 C 90 % 1028,5 hPa 0,0 l/m 0 min 0 min 0 W/m 22,5 km/h (4 Bft) 100,00 %
27.01.2022 02:56 2,8 C 2,2 C 0,0 C 90 % 1028,4 hPa 0,0 l/m 0 min 0 min 0 W/m 25,7 km/h (4 Bft) 97,22 %
27.01.2022 02:58 2,8 C 2,2 C 0,0 C 90 % 1028,3 hPa 0,0 l/m 0 min 0 min 0 W/m 22,5 km/h (4 Bft) 100,00 %
27.01.2022 03:00 2,8 C 2,2 C 0,0 C 90 % 1028,3 hPa 0,0 l/m 0 min 0 min 0 W/m 19,3 km/h (3 Bft) 100,00 %
27.01.2022 03:02 2,8 C 2,2 C 0,0 C 90 % 1028,3 hPa 0,0 l/m 0 min 0 min 0 W/m 29,0 km/h (5 Bft) 100,00 %
27.01.2022 03:04 2,8 C 2,2 C 0,0 C 90 % 1028,3 hPa 0,0 l/m 0 min 0 min 0 W/m 19,3 km/h (3 Bft) 100,00 %
27.01.2022 03:06 2,8 C 2,2 C 0,0 C 90 % 1028,3 hPa 0,0 l/m 0 min 0 min 0 W/m 22,5 km/h (4 Bft) 97,83 %
27.01.2022 03:08 2,9 C 2,2 C 0,0 C 90 % 1028,2 hPa 0,0 l/m 0 min 0 min 0 W/m 19,3 km/h (3 Bft) 97,87 %
27.01.2022 03:10 2,9 C 2,2 C 0,0 C 90 % 1028,1 hPa 0,0 l/m 0 min 0 min 0 W/m 19,3 km/h (3 Bft) 100,00 %
27.01.2022 03:12 2,9 C 2,2 C 0,0 C 90 % 1028,0 hPa 0,0 l/m 0 min 0 min 0 W/m 32,2 km/h (5 Bft) 100,00 %
27.01.2022 03:14 2,9 C 2,2 C 0,0 C 90 % 1028,0 hPa 0,0 l/m 0 min 0 min 0 W/m 38,6 km/h (5 Bft) 97,87 %
27.01.2022 03:16 2,9 C 2,2 C 0,0 C 90 % 1027,9 hPa 0,0 l/m 0 min 0 min 0 W/m 32,2 km/h (5 Bft) 97,87 %
27.01.2022 03:18 2,9 C 2,2 C 0,0 C 90 % 1028,0 hPa 0,0 l/m 0 min 0 min 0 W/m 16,1 km/h (3 Bft) 97,83 %
27.01.2022 03:20 2,9 C 2,2 C 0,0 C 90 % 1027,9 hPa 0,0 l/m 0 min 0 min 0 W/m 19,3 km/h (3 Bft) 95,74 %
27.01.2022 03:22 2,9 C 2,2 C 0,0 C 90 % 1027,8 hPa 0,0 l/m 0 min 0 min 0 W/m 12,9 km/h (3 Bft) 95,74 %
27.01.2022 03:24 2,9 C 2,2 C 0,0 C 90 % 1028,0 hPa 0,0 l/m 0 min 0 min 0 W/m 9,7 km/h (2 Bft) 95,74 %
27.01.2022 03:26 2,9 C 2,2 C 0,0 C 90 % 1028,0 hPa 0,0 l/m 0 min 0 min 0 W/m 25,7 km/h (4 Bft) 97,87 %
27.01.2022 03:28 2,9 C 2,8 C 0,0 C 90 % 1028,0 hPa 0,0 l/m 0 min 0 min 0 W/m 35,4 km/h (5 Bft) 97,87 %
27.01.2022 03:30 2,9 C 2,8 C 0,0 C 90 % 1028,0 hPa 0,0 l/m 0 min 0 min 0 W/m 12,9 km/h (3 Bft) 97,83 %
27.01.2022 03:32 2,9 C 2,8 C 0,0 C 90 % 1027,9 hPa 0,0 l/m 0 min 0 min 0 W/m 22,5 km/h (4 Bft) 95,74 %
27.01.2022 03:34 3,0 C 2,8 C 0,0 C 90 % 1027,8 hPa 0,0 l/m 0 min 0 min 0 W/m 22,5 km/h (4 Bft) 95,74 %
27.01.2022 03:36 3,0 C 2,8 C 0,0 C 90 % 1027,6 hPa 0,0 l/m 0 min 0 min 0 W/m 25,7 km/h (4 Bft) 95,74 %
27.01.2022 03:38 3,0 C 2,8 C 0,0 C 90 % 1027,7 hPa 0,0 l/m 0 min 0 min 0 W/m 35,4 km/h (5 Bft) 95,74 %
27.01.2022 03:40 3,0 C 2,8 C 0,0 C 90 % 1027,7 hPa 0,0 l/m 0 min 0 min 0 W/m 32,2 km/h (5 Bft) 95,74 %
27.01.2022 03:42 3,0 C 2,8 C 0,0 C 90 % 1027,9 hPa 0,0 l/m 0 min 0 min 0 W/m 22,5 km/h (4 Bft) 91,30 %
27.01.2022 03:44 3,1 C 2,8 C 0,0 C 90 % 1027,8 hPa 0,0 l/m 0 min 0 min 0 W/m 19,3 km/h (3 Bft) 89,36 %
27.01.2022 03:46 3,1 C 2,8 C 0,0 C 90 % 1027,8 hPa 0,0 l/m 0 min 0 min 0 W/m 19,3 km/h (3 Bft) 91,49 %
27.01.2022 03:48 3,1 C 2,8 C 0,0 C 90 % 1027,8 hPa 0,0 l/m 0 min 0 min 0 W/m 22,5 km/h (4 Bft) 95,74 %
27.01.2022 03:50 3,1 C 2,8 C 0,0 C 90 % 1027,9 hPa 0,0 l/m 0 min 0 min 0 W/m 19,3 km/h (3 Bft) 95,74 %
27.01.2022 03:52 3,1 C 2,8 C 0,0 C 90 % 1027,8 hPa 0,0 l/m 0 min 0 min 0 W/m 25,7 km/h (4 Bft) 93,62 %
27.01.2022 03:54 3,1 C 2,8 C 0,0 C 90 % 1027,8 hPa 0,0 l/m 0 min 0 min 0 W/m 12,9 km/h (3 Bft) 95,65 %
27.01.2022 03:56 3,1 C 2,8 C 0,0 C 90 % 1027,9 hPa 0,0 l/m 0 min 0 min 0 W/m 25,7 km/h (4 Bft) 95,74 %
27.01.2022 03:58 3,1 C 2,8 C 0,0 C 90 % 1027,7 hPa 0,0 l/m 0 min 0 min 0 W/m 16,1 km/h (3 Bft) 95,74 %
27.01.2022 04:00 3,1 C 2,8 C 0,0 C 90 % 1027,7 hPa 0,0 l/m 0 min 0 min 0 W/m 16,1 km/h (3 Bft) 95,74 %
27.01.2022 04:02 3,1 C 2,8 C 0,0 C 90 % 1027,6 hPa 0,0 l/m 0 min 0 min 0 W/m 16,1 km/h (3 Bft) 100,00 %
27.01.2022 04:04 3,1 C 2,8 C 0,0 C 90 % 1027,5 hPa 0,0 l/m 0 min 0 min 0 W/m 32,2 km/h (5 Bft) 95,74 %
27.01.2022 04:06 3,1 C 2,8 C 0,0 C 90 % 1027,6 hPa 0,0 l/m 0 min 0 min 0 W/m 25,7 km/h (4 Bft) 95,74 %
27.01.2022 04:08 3,1 C 2,8 C 0,0 C 90 % 1027,6 hPa 0,0 l/m 0 min 0 min 0 W/m 22,5 km/h (4 Bft) 97,83 %
27.01.2022 04:10 3,1 C 2,8 C 0,0 C 90 % 1027,6 hPa 0,0 l/m 0 min 0 min 0 W/m 16,1 km/h (3 Bft) 93,62 %
27.01.2022 04:12 3,1 C 2,8 C 0,0 C 90 % 1027,7 hPa 0,0 l/m 0 min 0 min 0 W/m 25,7 km/h (4 Bft) 48,72 %
27.01.2022 04:14 3,1 C 2,8 C 0,0 C 90 % 1027,5 hPa 0,0 l/m 0 min 0 min 0 W/m 19,3 km/h (3 Bft) 95,74 %
27.01.2022 04:16 3,1 C 2,8 C 0,0 C 90 % 1027,5 hPa 0,0 l/m 0 min 0 min 0 W/m 29,0 km/h (5 Bft) 95,74 %
27.01.2022 04:18 3,1 C 2,8 C 0,0 C 90 % 1027,5 hPa 0,0 l/m 0 min 0 min 0 W/m 25,7 km/h (4 Bft) 95,74 %
27.01.2022 04:20 3,1 C 2,8 C 0,0 C 90 % 1027,4 hPa 0,0 l/m 0 min 0 min 0 W/m 25,7 km/h (4 Bft) 97,83 %
27.01.2022 04:22 3,2 C 2,8 C 0,0 C 90 % 1027,3 hPa 0,0 l/m 0 min 0 min 0 W/m 25,7 km/h (4 Bft) 97,87 %
27.01.2022 04:24 3,2 C 2,8 C 0,0 C 90 % 1027,3 hPa 0,0 l/m 0 min 0 min 0 W/m 19,3 km/h (3 Bft) 97,87 %
27.01.2022 04:26 3,2 C 2,8 C 0,0 C 90 % 1027,2 hPa 0,0 l/m 0 min 0 min 0 W/m 12,9 km/h (3 Bft) 95,74 %
27.01.2022 04:28 3,2 C 2,8 C 0,0 C 90 % 1027,2 hPa 0,0 l/m 0 min 0 min 0 W/m 22,5 km/h (4 Bft) 100,00 %
27.01.2022 04:30 3,2 C 2,8 C 0,0 C 90 % 1027,2 hPa 0,0 l/m 0 min 0 min 0 W/m 19,3 km/h (3 Bft) 95,74 %
27.01.2022 04:32 3,2 C 2,8 C 0,0 C 90 % 1027,2 hPa 0,0 l/m 0 min 0 min 0 W/m 19,3 km/h (3 Bft) 97,83 %
27.01.2022 04:34 3,2 C 2,8 C 0,0 C 90 % 1027,2 hPa 0,0 l/m 0 min 0 min 0 W/m 25,7 km/h (4 Bft) 100,00 %
27.01.2022 04:36 3,2 C 2,8 C 0,0 C 90 % 1027,2 hPa 0,0 l/m 0 min 0 min 0 W/m 29,0 km/h (5 Bft) 97,87 %
27.01.2022 04:38 3,2 C 2,8 C 0,0 C 90 % 1027,1 hPa 0,0 l/m 0 min 0 min 0 W/m 25,7 km/h (4 Bft) 100,00 %
27.01.2022 04:40 3,2 C 2,8 C 0,0 C 90 % 1027,2 hPa 0,0 l/m 0 min 0 min 0 W/m 22,5 km/h (4 Bft) 100,00 %
27.01.2022 04:42 3,2 C 2,8 C 0,0 C 90 % 1027,1 hPa 0,0 l/m 0 min 0 min 0 W/m 16,1 km/h (3 Bft) 97,87 %
27.01.2022 04:44 3,2 C 2,8 C 0,0 C 90 % 1027,1 hPa 0,0 l/m 0 min 0 min 0 W/m 25,7 km/h (4 Bft) 100,00 %
27.01.2022 04:46 3,2 C 2,8 C 0,0 C 90 % 1027,2 hPa 0,0 l/m 0 min 0 min 0 W/m 22,5 km/h (4 Bft) 100,00 %
27.01.2022 04:48 3,2 C 2,8 C 0,0 C 90 % 1027,3 hPa 0,0 l/m 0 min 0 min 0 W/m 25,7 km/h (4 Bft) 100,00 %
27.01.2022 04:50 3,2 C 2,8 C 0,0 C 90 % 1027,2 hPa 0,0 l/m 0 min 0 min 0 W/m 22,5 km/h (4 Bft) 100,00 %
27.01.2022 04:52 3,2 C 2,8 C 0,0 C 90 % 1027,2 hPa 0,0 l/m 0 min 0 min 0 W/m 19,3 km/h (3 Bft) 100,00 %
27.01.2022 04:54 3,2 C 2,8 C 0,0 C 90 % 1027,2 hPa 0,0 l/m 0 min 0 min 0 W/m 16,1 km/h (3 Bft) 100,00 %
27.01.2022 04:56 3,2 C 2,8 C 0,0 C 90 % 1027,2 hPa 0,0 l/m 0 min 0 min 0 W/m 22,5 km/h (4 Bft) 100,00 %
27.01.2022 04:58 3,2 C 2,8 C 0,0 C 90 % 1027,2 hPa 0,0 l/m 0 min 0 min 0 W/m 16,1 km/h (3 Bft) 100,00 %
27.01.2022 05:00 3,2 C 2,8 C 0,0 C 90 % 1027,2 hPa 0,0 l/m 0 min 0 min 0 W/m 16,1 km/h (3 Bft) 97,87 %
27.01.2022 05:02 3,2 C 2,8 C 0,0 C 90 % 1027,0 hPa 0,0 l/m 0 min 0 min 0 W/m 19,3 km/h (3 Bft) 100,00 %
27.01.2022 05:04 3,2 C 2,8 C 0,0 C 90 % 1027,0 hPa 0,0 l/m 0 min 0 min 0 W/m 16,1 km/h (3 Bft) 100,00 %
27.01.2022 05:06 3,2 C 2,8 C 0,0 C 90 % 1027,0 hPa 0,0 l/m 0 min 0 min 0 W/m 19,3 km/h (3 Bft) 100,00 %
27.01.2022 05:08 3,2 C 2,8 C 0,0 C 90 % 1026,9 hPa 0,0 l/m 0 min 0 min 0 W/m 19,3 km/h (3 Bft) 100,00 %
27.01.2022 05:10 3,2 C 2,8 C 0,0 C 90 % 1026,8 hPa 0,0 l/m 0 min 0 min 0 W/m 16,1 km/h (3 Bft) 97,87 %
27.01.2022 05:12 3,3 C 2,8 C 0,0 C 90 % 1026,8 hPa 0,0 l/m 0 min 0 min 0 W/m 19,3 km/h (3 Bft) 100,00 %
27.01.2022 05:14 3,3 C 2,8 C 0,0 C 90 % 1026,8 hPa 0,0 l/m 0 min 0 min 0 W/m 25,7 km/h (4 Bft) 95,74 %
27.01.2022 05:16 3,3 C 2,8 C 0,0 C 90 % 1026,8 hPa 0,0 l/m 0 min 0 min 0 W/m 25,7 km/h (4 Bft) 97,87 %
27.01.2022 05:18 3,3 C 2,8 C 0,0 C 90 % 1026,8 hPa 0,0 l/m 0 min 0 min 0 W/m 22,5 km/h (4 Bft) 97,87 %
27.01.2022 05:20 3,3 C 2,8 C 0,0 C 90 % 1026,7 hPa 0,0 l/m 0 min 0 min 0 W/m 19,3 km/h (3 Bft) 95,65 %
27.01.2022 05:22 3,3 C 2,8 C 0,0 C 90 % 1026,8 hPa 0,0 l/m 0 min 0 min 0 W/m 12,9 km/h (3 Bft) 95,74 %
27.01.2022 05:24 3,3 C 2,8 C 0,0 C 90 % 1026,9 hPa 0,0 l/m 0 min 0 min 0 W/m 19,3 km/h (3 Bft) 95,74 %
27.01.2022 05:26 3,3 C 2,8 C 0,0 C 90 % 1026,8 hPa 0,0 l/m 0 min 0 min 0 W/m 19,3 km/h (3 Bft) 95,74 %
27.01.2022 05:28 3,3 C 2,8 C 0,0 C 90 % 1026,8 hPa 0,0 l/m 0 min 0 min 0 W/m 22,5 km/h (4 Bft) 97,87 %
27.01.2022 05:30 3,3 C 2,8 C 0,0 C 90 % 1026,8 hPa 0,0 l/m 0 min 0 min 0 W/m 12,9 km/h (3 Bft) 97,87 %
27.01.2022 05:32 3,3 C 2,8 C 0,0 C 90 % 1026,7 hPa 0,0 l/m 0 min 0 min 0 W/m 22,5 km/h (4 Bft) 97,83 %
27.01.2022 05:34 3,3 C 2,8 C 0,0 C 90 % 1026,8 hPa 0,0 l/m 0 min 0 min 0 W/m 19,3 km/h (3 Bft) 97,87 %
27.01.2022 05:36 3,3 C 2,8 C 0,0 C 90 % 1026,7 hPa 0,0 l/m 0 min 0 min 0 W/m 29,0 km/h (5 Bft) 95,74 %
27.01.2022 05:38 3,4 C 2,8 C 0,0 C 90 % 1026,8 hPa 0,0 l/m 0 min 0 min 0 W/m 22,5 km/h (4 Bft) 97,87 %
27.01.2022 05:40 3,4 C 2,8 C 0,0 C 90 % 1026,7 hPa 0,0 l/m 0 min 0 min 0 W/m 12,9 km/h (3 Bft) 97,87 %
27.01.2022 05:42 3,4 C 2,8 C 0,0 C 90 % 1026,6 hPa 0,0 l/m 0 min 0 min 0 W/m 19,3 km/h (3 Bft) 97,87 %
27.01.2022 05:44 3,4 C 2,8 C 0,6 C 90 % 1026,6 hPa 0,0 l/m 0 min 0 min 0 W/m 19,3 km/h (3 Bft) 97,83 %
27.01.2022 05:46 3,4 C 2,8 C 0,6 C 90 % 1026,5 hPa 0,0 l/m 0 min 0 min 0 W/m 22,5 km/h (4 Bft) 97,87 %
27.01.2022 05:48 3,4 C 2,8 C 0,6 C 90 % 1026,4 hPa 0,0 l/m 0 min 0 min 0 W/m 22,5 km/h (4 Bft) 97,87 %
27.01.2022 05:50 3,4 C 2,8 C 0,6 C 90 % 1026,3 hPa 0,0 l/m 0 min 0 min 0 W/m 19,3 km/h (3 Bft) 100,00 %
27.01.2022 05:52 3,4 C 2,8 C 0,6 C 90 % 1026,3 hPa 0,0 l/m 0 min 0 min 0 W/m 19,3 km/h (3 Bft) 95,74 %
27.01.2022 05:54 3,5 C 2,8 C 0,6 C 90 % 1026,3 hPa 0,0 l/m 0 min 0 min 0 W/m 25,7 km/h (4 Bft) 100,00 %
27.01.2022 05:56 3,5 C 2,8 C 0,6 C 90 % 1026,2 hPa 0,0 l/m 0 min 0 min 0 W/m 16,1 km/h (3 Bft) 97,87 %
27.01.2022 05:58 3,5 C 2,8 C 0,6 C 90 % 1026,2 hPa 0,0 l/m 0 min 0 min 0 W/m 16,1 km/h (3 Bft) 100,00 %
27.01.2022 06:00 3,5 C 2,8 C 0,6 C 90 % 1026,2 hPa 0,0 l/m 0 min 0 min 0 W/m 22,5 km/h (4 Bft) 97,87 %
27.01.2022 06:02 3,6 C 3,3 C 0,6 C 90 % 1026,2 hPa 0,0 l/m 0 min 0 min 0 W/m 32,2 km/h (5 Bft) 100,00 %
27.01.2022 06:04 3,6 C 3,3 C 0,6 C 90 % 1026,1 hPa 0,0 l/m 0 min 0 min 0 W/m 25,7 km/h (4 Bft) 97,87 %
27.01.2022 06:08 3,6 C 3,3 C 0,6 C 90 % 1026,1 hPa 0,0 l/m 0 min 0 min 0 W/m 16,1 km/h (3 Bft) 98,92 %
27.01.2022 06:10 3,6 C 3,3 C 0,6 C 90 % 1026,1 hPa 0,0 l/m 0 min 0 min 0 W/m 25,7 km/h (4 Bft) 97,87 %
27.01.2022 06:12 3,6 C 3,3 C 0,6 C 90 % 1025,9 hPa 0,0 l/m 0 min 0 min 0 W/m 22,5 km/h (4 Bft) 97,87 %
27.01.2022 06:14 3,6 C 3,3 C 0,6 C 90 % 1026,0 hPa 0,0 l/m 0 min 0 min 0 W/m 19,3 km/h (3 Bft) 97,87 %
27.01.2022 06:16 3,7 C 3,3 C 0,6 C 90 % 1025,9 hPa 0,0 l/m 0 min 0 min 0 W/m 16,1 km/h (3 Bft) 97,87 %
27.01.2022 06:18 3,7 C 3,3 C 0,6 C 90 % 1025,9 hPa 0,0 l/m 0 min 0 min 0 W/m 16,1 km/h (3 Bft) 97,83 %
27.01.2022 06:20 3,7 C 3,3 C 0,6 C 90 % 1025,8 hPa 0,0 l/m 0 min 0 min 0 W/m 25,7 km/h (4 Bft) 95,74 %
27.01.2022 06:22 3,7 C 3,3 C 0,6 C 90 % 1025,9 hPa 0,0 l/m 0 min 0 min 0 W/m 19,3 km/h (3 Bft) 97,87 %
27.01.2022 06:24 3,8 C 3,3 C 0,6 C 90 % 1025,8 hPa 0,0 l/m 0 min 0 min 0 W/m 22,5 km/h (4 Bft) 97,87 %
27.01.2022 06:26 3,8 C 3,3 C 0,6 C 90 % 1025,8 hPa 0,0 l/m 0 min 0 min 0 W/m 12,9 km/h (3 Bft) 97,87 %
27.01.2022 06:28 3,8 C 3,3 C 0,6 C 90 % 1025,8 hPa 0,0 l/m 0 min 0 min 0 W/m 22,5 km/h (4 Bft) 97,87 %
27.01.2022 06:30 3,8 C 3,3 C 0,6 C 90 % 1025,9 hPa 0,0 l/m 0 min 0 min 0 W/m 12,9 km/h (3 Bft) 97,83 %
27.01.2022 06:32 3,8 C 3,3 C 0,6 C 90 % 1025,8 hPa 0,0 l/m 0 min 0 min 0 W/m 19,3 km/h (3 Bft) 97,87 %
27.01.2022 06:34 3,9 C 3,3 C 0,6 C 90 % 1025,7 hPa 0,0 l/m 0 min 0 min 0 W/m 22,5 km/h (4 Bft) 97,87 %
27.01.2022 06:36 3,9 C 3,3 C 0,6 C 90 % 1025,8 hPa 0,0 l/m 0 min 0 min 0 W/m 16,1 km/h (3 Bft) 95,74 %
27.01.2022 06:38 3,9 C 3,3 C 0,6 C 90 % 1025,8 hPa 0,0 l/m 0 min 0 min 0 W/m 22,5 km/h (4 Bft) 93,62 %
27.01.2022 06:40 4,0 C 3,3 C 0,6 C 90 % 1025,8 hPa 0,0 l/m 0 min 0 min 0 W/m 22,5 km/h (4 Bft) 95,74 %
27.01.2022 06:42 4,0 C 3,3 C 0,6 C 90 % 1025,8 hPa 0,0 l/m 0 min 0 min 0 W/m 12,9 km/h (3 Bft) 95,65 %
27.01.2022 06:44 4,1 C 3,3 C 0,6 C 90 % 1025,7 hPa 0,0 l/m 0 min 0 min 0 W/m 16,1 km/h (3 Bft) 93,62 %
27.01.2022 06:46 4,1 C 3,3 C 0,6 C 90 % 1025,6 hPa 0,0 l/m 0 min 0 min 0 W/m 22,5 km/h (4 Bft) 95,74 %
27.01.2022 06:48 4,1 C 3,3 C 0,6 C 90 % 1025,6 hPa 0,0 l/m 0 min 0 min 0 W/m 22,5 km/h (4 Bft) 95,74 %
27.01.2022 06:50 4,1 C 3,3 C 0,6 C 90 % 1025,6 hPa 0,0 l/m 0 min 0 min 0 W/m 22,5 km/h (4 Bft) 95,74 %
27.01.2022 06:52 4,1 C 3,9 C 1,1 C 90 % 1025,5 hPa 0,0 l/m 0 min 0 min 0 W/m 19,3 km/h (3 Bft) 95,74 %
27.01.2022 06:54 4,1 C 3,9 C 1,1 C 90 % 1025,4 hPa 0,0 l/m 0 min 0 min 0 W/m 29,0 km/h (5 Bft) 95,65 %
27.01.2022 06:56 4,1 C 3,9 C 1,1 C 90 % 1025,4 hPa 0,0 l/m 0 min 0 min 0 W/m 16,1 km/h (3 Bft) 97,87 %
27.01.2022 06:58 4,2 C 3,9 C 1,1 C 90 % 1025,4 hPa 0,0 l/m 0 min 0 min 0 W/m 25,7 km/h (4 Bft) 97,87 %
27.01.2022 07:00 4,2 C 3,9 C 1,1 C 90 % 1025,4 hPa 0,0 l/m 0 min 0 min 0 W/m 19,3 km/h (3 Bft) 97,87 %
27.01.2022 07:02 4,3 C 3,9 C 1,1 C 90 % 1025,4 hPa 0,0 l/m 0 min 0 min 0 W/m 29,0 km/h (5 Bft) 93,62 %
27.01.2022 07:04 4,3 C 3,9 C 1,1 C 90 % 1025,3 hPa 0,0 l/m 0 min 0 min 0 W/m 25,7 km/h (4 Bft) 95,74 %
27.01.2022 07:06 4,3 C 3,9 C 1,1 C 90 % 1025,4 hPa 0,0 l/m 0 min 0 min 0 W/m 25,7 km/h (4 Bft) 97,83 %
27.01.2022 07:08 4,3 C 3,9 C 1,1 C 90 % 1025,3 hPa 0,0 l/m 0 min 0 min 0 W/m 16,1 km/h (3 Bft) 97,87 %
27.01.2022 07:10 4,3 C 3,9 C 1,1 C 90 % 1025,2 hPa 0,0 l/m 0 min 0 min 0 W/m 25,7 km/h (4 Bft) 95,74 %
27.01.2022 07:12 4,3 C 3,9 C 1,1 C 90 % 1025,1 hPa 0,0 l/m 0 min 0 min 0 W/m 25,7 km/h (4 Bft) 95,74 %
27.01.2022 07:14 4,4 C 3,9 C 1,1 C 90 % 1025,2 hPa 0,0 l/m 0 min 0 min 0 W/m 25,7 km/h (4 Bft) 93,62 %
27.01.2022 07:16 4,4 C 3,9 C 1,1 C 90 % 1025,2 hPa 0,0 l/m 0 min 0 min 0 W/m 25,7 km/h (4 Bft) 95,74 %
27.01.2022 07:18 4,4 C 3,9 C 1,1 C 90 % 1025,2 hPa 0,0 l/m 0 min 0 min 0 W/m 25,7 km/h (4 Bft) 95,65 %
27.01.2022 07:20 4,4 C 3,9 C 1,1 C 90 % 1025,2 hPa 0,0 l/m 0 min 0 min 0 W/m 22,5 km/h (4 Bft) 93,62 %
27.01.2022 07:22 4,4 C 3,9 C 1,1 C 90 % 1025,0 hPa 0,0 l/m 0 min 0 min 0 W/m 19,3 km/h (3 Bft) 95,74 %
27.01.2022 07:24 4,4 C 3,9 C 1,1 C 90 % 1025,0 hPa 0,0 l/m 0 min 0 min 0 W/m 22,5 km/h (4 Bft) 95,74 %
27.01.2022 07:26 4,4 C 3,9 C 1,1 C 90 % 1024,9 hPa 0,0 l/m 0 min 0 min 0 W/m 12,9 km/h (3 Bft) 95,74 %
27.01.2022 07:28 4,5 C 3,9 C 1,1 C 90 % 1024,9 hPa 0,0 l/m 0 min 0 min 0 W/m 16,1 km/h (3 Bft) 97,83 %
27.01.2022 07:30 4,5 C 3,9 C 1,1 C 90 % 1024,8 hPa 0,0 l/m 0 min 0 min 0 W/m 19,3 km/h (3 Bft) 97,87 %
27.01.2022 07:32 4,5 C 3,9 C 1,1 C 90 % 1024,8 hPa 0,0 l/m 0 min 0 min 0 W/m 22,5 km/h (4 Bft) 95,74 %
27.01.2022 07:34 4,5 C 3,9 C 1,1 C 90 % 1024,8 hPa 0,0 l/m 0 min 0 min 0 W/m 22,5 km/h (4 Bft) 97,87 %
27.01.2022 07:36 4,5 C 3,9 C 1,1 C 90 % 1024,8 hPa 0,0 l/m 0 min 0 min 0 W/m 32,2 km/h (5 Bft) 95,74 %
27.01.2022 07:38 4,6 C 3,9 C 1,1 C 90 % 1024,7 hPa 0,0 l/m 0 min 0 min 0 W/m 25,7 km/h (4 Bft) 97,87 %
27.01.2022 07:40 4,6 C 3,9 C 1,1 C 90 % 1024,7 hPa 0,0 l/m 0 min 0 min 0 W/m 19,3 km/h (3 Bft) 95,74 %
27.01.2022 07:42 4,6 C 3,9 C 1,1 C 90 % 1024,6 hPa 0,0 l/m 0 min 0 min 0 W/m 25,7 km/h (4 Bft) 97,83 %
27.01.2022 07:44 4,6 C 3,9 C 1,1 C 90 % 1024,7 hPa 0,0 l/m 0 min 0 min 0 W/m 16,1 km/h (3 Bft) 100,00 %
27.01.2022 07:46 4,6 C 3,9 C 1,1 C 90 % 1024,7 hPa 0,0 l/m 0 min 0 min 0 W/m 19,3 km/h (3 Bft) 100,00 %
27.01.2022 07:48 4,6 C 3,9 C 1,1 C 90 % 1024,7 hPa 0,0 l/m 0 min 0 min 0 W/m 29,0 km/h (5 Bft) 100,00 %
27.01.2022 07:50 4,6 C 3,9 C 1,1 C 90 % 1024,7 hPa 0,0 l/m 0 min 0 min 0 W/m 16,1 km/h (3 Bft) 100,00 %
27.01.2022 07:52 4,6 C 3,9 C 1,1 C 90 % 1024,6 hPa 0,0 l/m 0 min 0 min 0 W/m 19,3 km/h (3 Bft) 100,00 %
27.01.2022 07:54 4,6 C 3,9 C 1,1 C 90 % 1024,6 hPa 0,0 l/m 0 min 0 min 0 W/m 12,9 km/h (3 Bft) 100,00 %
27.01.2022 07:56 4,7 C 3,9 C 1,1 C 90 % 1024,6 hPa 0,0 l/m 0 min 0 min 0 W/m 12,9 km/h (3 Bft) 100,00 %
27.01.2022 07:58 4,7 C 3,9 C 1,1 C 90 % 1024,6 hPa 0,0 l/m 0 min 0 min 0 W/m 19,3 km/h (3 Bft) 100,00 %
27.01.2022 08:00 4,7 C 4,4 C 1,1 C 90 % 1024,7 hPa 0,0 l/m 0 min 0 min 0 W/m 22,5 km/h (4 Bft) 100,00 %
27.01.2022 08:02 4,8 C 4,4 C 1,1 C 90 % 1024,7 hPa 0,0 l/m 0 min 0 min 0 W/m 19,3 km/h (3 Bft) 97,78 %
27.01.2022 08:04 4,8 C 4,4 C 1,7 C 90 % 1024,7 hPa 0,0 l/m 0 min 0 min 0 W/m 19,3 km/h (3 Bft) 100,00 %
27.01.2022 08:06 4,8 C 4,4 C 1,7 C 90 % 1024,7 hPa 0,0 l/m 0 min 0 min 0 W/m 22,5 km/h (4 Bft) 97,87 %
27.01.2022 08:08 4,8 C 4,4 C 1,7 C 90 % 1024,7 hPa 0,0 l/m 0 min 0 min 0 W/m 25,7 km/h (4 Bft) 100,00 %
27.01.2022 08:10 4,9 C 4,4 C 1,7 C 90 % 1024,7 hPa 0,0 l/m 0 min 0 min 0 W/m 19,3 km/h (3 Bft) 100,00 %
27.01.2022 08:12 4,9 C 4,4 C 1,7 C 90 % 1024,7 hPa 0,0 l/m 0 min 0 min 0 W/m 16,1 km/h (3 Bft) 100,00 %
27.01.2022 08:14 4,9 C 4,4 C 1,7 C 90 % 1024,6 hPa 0,0 l/m 0 min 0 min 0 W/m 9,7 km/h (2 Bft) 100,00 %
27.01.2022 08:16 4,9 C 4,4 C 1,7 C 90 % 1024,5 hPa 0,0 l/m 0 min 0 min 0 W/m 16,1 km/h (3 Bft) 100,00 %
27.01.2022 08:18 4,9 C 4,4 C 1,7 C 90 % 1024,4 hPa 0,0 l/m 0 min 0 min 0 W/m 19,3 km/h (3 Bft) 100,00 %
27.01.2022 08:20 4,9 C 4,4 C 1,7 C 90 % 1024,4 hPa 0,0 l/m 0 min 0 min 0 W/m 16,1 km/h (3 Bft) 100,00 %
27.01.2022 08:22 4,9 C 4,4 C 1,7 C 90 % 1024,3 hPa 0,0 l/m 0 min 0 min 0 W/m 22,5 km/h (4 Bft) 100,00 %
27.01.2022 08:24 4,9 C 4,4 C 1,7 C 90 % 1024,4 hPa 0,0 l/m 0 min 0 min 0 W/m 16,1 km/h (3 Bft) 100,00 %
27.01.2022 08:26 5,0 C 4,4 C 1,7 C 90 % 1024,4 hPa 0,0 l/m 0 min 0 min 0 W/m 22,5 km/h (4 Bft) 100,00 %
27.01.2022 08:28 5,0 C 4,4 C 1,7 C 90 % 1024,3 hPa 0,0 l/m 0 min 0 min 0 W/m 19,3 km/h (3 Bft) 97,83 %
27.01.2022 08:30 5,0 C 4,4 C 1,7 C 90 % 1024,3 hPa 0,0 l/m 0 min 0 min 0 W/m 19,3 km/h (3 Bft) 100,00 %
27.01.2022 08:32 5,0 C 4,4 C 1,7 C 90 % 1024,3 hPa 0,0 l/m 0 min 0 min 0 W/m 22,5 km/h (4 Bft) 97,87 %
27.01.2022 08:34 5,0 C 4,4 C 1,7 C 90 % 1024,2 hPa 0,0 l/m 0 min 0 min 3 W/m 29,0 km/h (5 Bft) 100,00 %
27.01.2022 08:36 5,1 C 4,4 C 1,7 C 90 % 1024,2 hPa 0,0 l/m 0 min 0 min 5 W/m 25,7 km/h (4 Bft) 97,87 %
27.01.2022 08:38 5,1 C 4,4 C 1,7 C 90 % 1024,2 hPa 0,0 l/m 0 min 0 min 7 W/m 19,3 km/h (3 Bft) 100,00 %
27.01.2022 08:40 5,1 C 4,4 C 1,7 C 90 % 1024,2 hPa 0,0 l/m 0 min 0 min 7 W/m 22,5 km/h (4 Bft) 100,00 %
27.01.2022 08:42 5,1 C 4,4 C 1,7 C 90 % 1024,2 hPa 0,0 l/m 0 min 0 min 8 W/m 25,7 km/h (4 Bft) 97,87 %
27.01.2022 08:44 5,1 C 4,4 C 1,7 C 91 % 1024,3 hPa 0,0 l/m 0 min 0 min 7 W/m 19,3 km/h (3 Bft) 100,00 %
27.01.2022 08:46 5,1 C 4,4 C 1,7 C 91 % 1024,3 hPa 0,0 l/m 0 min 0 min 5 W/m 22,5 km/h (4 Bft) 98,31 %
27.01.2022 08:48 5,1 C 4,4 C 1,7 C 91 % 1024,3 hPa 0,0 l/m 0 min 0 min 5 W/m 19,3 km/h (3 Bft) 100,00 %
27.01.2022 08:50 5,2 C 4,4 C 1,7 C 91 % 1024,3 hPa 0,0 l/m 0 min 0 min 5 W/m 19,3 km/h (3 Bft) 97,87 %
27.01.2022 08:52 5,1 C 4,4 C 1,7 C 91 % 1024,3 hPa 0,0 l/m 0 min 0 min 9 W/m 25,7 km/h (4 Bft) 97,87 %
27.01.2022 08:54 5,1 C 4,4 C 1,7 C 91 % 1024,3 hPa 0,0 l/m 0 min 0 min 11 W/m 32,2 km/h (5 Bft) 93,62 %
27.01.2022 08:56 5,1 C 4,4 C 1,7 C 91 % 1024,2 hPa 0,0 l/m 0 min 0 min 12 W/m 16,1 km/h (3 Bft) 97,87 %
27.01.2022 08:58 5,1 C 4,4 C 1,7 C 91 % 1024,1 hPa 0,0 l/m 0 min 0 min 10 W/m 25,7 km/h (4 Bft) 97,87 %
27.01.2022 09:00 5,1 C 4,4 C 1,7 C 91 % 1024,1 hPa 0,0 l/m 0 min 0 min 10 W/m 22,5 km/h (4 Bft) 97,83 %
27.01.2022 09:02 5,1 C 4,4 C 1,7 C 91 % 1024,3 hPa 0,0 l/m 0 min 0 min 9 W/m 19,3 km/h (3 Bft) 95,74 %
27.01.2022 09:04 5,1 C 4,4 C 1,7 C 91 % 1024,3 hPa 0,0 l/m 0 min 0 min 9 W/m 29,0 km/h (5 Bft) 95,74 %
27.01.2022 09:06 5,1 C 4,4 C 1,7 C 91 % 1024,3 hPa 0,0 l/m 0 min 0 min 8 W/m 25,7 km/h (4 Bft) 97,87 %
27.01.2022 09:08 5,1 C 4,4 C 1,7 C 91 % 1024,4 hPa 0,0 l/m 0 min 0 min 5 W/m 19,3 km/h (3 Bft) 97,87 %
27.01.2022 09:10 5,1 C 4,4 C 1,7 C 92 % 1024,3 hPa 0,0 l/m 0 min 0 min 6 W/m 16,1 km/h (3 Bft) 95,74 %
27.01.2022 09:12 5,1 C 4,4 C 1,7 C 92 % 1024,4 hPa 0,0 l/m 0 min 0 min 9 W/m 19,3 km/h (3 Bft) 95,65 %
27.01.2022 09:14 5,0 C 4,4 C 1,1 C 92 % 1024,4 hPa 0,0 l/m 0 min 0 min 10 W/m 29,0 km/h (5 Bft) 93,62 %
27.01.2022 09:16 5,0 C 4,4 C 1,1 C 92 % 1024,5 hPa 0,0 l/m 0 min 2 min 10 W/m 22,5 km/h (4 Bft) 93,62 %
27.01.2022 09:18 4,9 C 3,9 C 1,1 C 93 % 1024,4 hPa 0,0 l/m 0 min 2 min 8 W/m 22,5 km/h (4 Bft) 95,74 %
27.01.2022 09:20 4,9 C 3,9 C 1,1 C 93 % 1024,3 hPa 0,0 l/m 0 min 0 min 13 W/m 19,3 km/h (3 Bft) 93,62 %
27.01.2022 09:22 4,9 C 3,9 C 1,1 C 93 % 1024,3 hPa 0,0 l/m 0 min 0 min 13 W/m 16,1 km/h (3 Bft) 95,74 %
27.01.2022 09:24 4,8 C 3,9 C 1,1 C 93 % 1024,3 hPa 0,0 l/m 0 min 2 min 18 W/m 12,9 km/h (3 Bft) 95,65 %
27.01.2022 09:26 4,8 C 3,9 C 1,1 C 93 % 1024,2 hPa 0,0 l/m 0 min 2 min 13 W/m 25,7 km/h (4 Bft) 93,62 %
27.01.2022 09:28 4,8 C 3,9 C 1,1 C 94 % 1024,3 hPa 0,0 l/m 0 min 2 min 10 W/m 16,1 km/h (3 Bft) 93,62 %
27.01.2022 09:30 4,8 C 3,9 C 1,1 C 94 % 1024,2 hPa 0,0 l/m 0 min 0 min 12 W/m 25,7 km/h (4 Bft) 93,62 %
27.01.2022 09:32 4,7 C 3,9 C 1,1 C 94 % 1024,2 hPa 0,0 l/m 0 min 0 min 12 W/m 12,9 km/h (3 Bft) 93,62 %
27.01.2022 09:34 4,7 C 3,9 C 1,1 C 94 % 1024,3 hPa 0,0 l/m 0 min 0 min 11 W/m 19,3 km/h (3 Bft) 91,49 %
27.01.2022 09:36 4,7 C 3,9 C 1,1 C 95 % 1024,4 hPa 0,0 l/m 0 min 0 min 9 W/m 25,7 km/h (4 Bft) 95,65 %
27.01.2022 09:38 4,7 C 3,9 C 1,1 C 95 % 1024,4 hPa 0,0 l/m 0 min 0 min 9 W/m 19,3 km/h (3 Bft) 95,74 %
27.01.2022 09:40 4,7 C 3,9 C 1,1 C 95 % 1024,5 hPa 0,0 l/m 0 min 0 min 8 W/m 12,9 km/h (3 Bft) 95,74 %
27.01.2022 09:42 4,7 C 3,9 C 1,1 C 95 % 1024,5 hPa 0,0 l/m 0 min 0 min 9 W/m 19,3 km/h (3 Bft) 97,87 %
27.01.2022 09:44 4,7 C 3,9 C 1,1 C 95 % 1024,5 hPa 0,0 l/m 0 min 0 min 8 W/m 22,5 km/h (4 Bft) 95,74 %
27.01.2022 09:46 4,7 C 3,9 C 1,1 C 95 % 1024,5 hPa 0,0 l/m 0 min 0 min 9 W/m 16,1 km/h (3 Bft) 97,87 %
27.01.2022 09:48 4,7 C 3,9 C 1,1 C 95 % 1024,5 hPa 0,0 l/m 0 min 0 min 9 W/m 12,9 km/h (3 Bft) 95,65 %
27.01.2022 09:50 4,7 C 3,9 C 1,1 C 95 % 1024,3 hPa 0,0 l/m 0 min 0 min 10 W/m 12,9 km/h (3 Bft) 97,87 %
27.01.2022 09:52 4,7 C 3,9 C 1,1 C 95 % 1024,3 hPa 0,0 l/m 0 min 0 min 14 W/m 16,1 km/h (3 Bft) 95,74 %
27.01.2022 09:54 4,7 C 3,9 C 1,1 C 96 % 1024,3 hPa 0,0 l/m 0 min 0 min 20 W/m 12,9 km/h (3 Bft) 97,87 %
27.01.2022 09:56 4,7 C 3,9 C 1,1 C 96 % 1024,3 hPa 0,2 l/m 0 min 0 min 17 W/m 16,1 km/h (3 Bft) 97,87 %
27.01.2022 09:58 4,7 C 4,4 C 1,1 C 96 % 1024,3 hPa 0,0 l/m 0 min 0 min 15 W/m 12,9 km/h (3 Bft) 97,83 %
27.01.2022 10:00 4,7 C 4,4 C 1,1 C 96 % 1024,4 hPa 0,0 l/m 0 min 0 min 16 W/m 19,3 km/h (3 Bft) 95,74 %
27.01.2022 10:02 4,7 C 4,4 C 1,1 C 96 % 1024,4 hPa 0,0 l/m 0 min 0 min 27 W/m 16,1 km/h (3 Bft) 97,14 %
27.01.2022 10:04 4,8 C 4,4 C 1,7 C 96 % 1024,3 hPa 0,0 l/m 0 min 0 min 46 W/m 19,3 km/h (3 Bft) 98,31 %
27.01.2022 10:06 4,8 C 4,4 C 1,7 C 96 % 1024,3 hPa 0,0 l/m 0 min 0 min 47 W/m 19,3 km/h (3 Bft) 95,74 %
27.01.2022 10:08 4,8 C 4,4 C 1,7 C 96 % 1024,3 hPa 0,0 l/m 0 min 2 min 40 W/m 22,5 km/h (4 Bft) 97,14 %
27.01.2022 10:10 4,9 C 4,4 C 1,7 C 96 % 1024,3 hPa 0,0 l/m 0 min 0 min 29 W/m 16,1 km/h (3 Bft) 97,87 %
27.01.2022 10:12 4,9 C 4,4 C 1,7 C 96 % 1024,2 hPa 0,0 l/m 0 min 0 min 25 W/m 16,1 km/h (3 Bft) 97,87 %
27.01.2022 10:14 4,9 C 4,4 C 1,7 C 96 % 1024,3 hPa 0,0 l/m 0 min 2 min 18 W/m 16,1 km/h (3 Bft) 95,65 %
27.01.2022 10:16 4,9 C 4,4 C 1,7 C 96 % 1024,3 hPa 0,0 l/m 0 min 2 min 16 W/m 19,3 km/h (3 Bft) 95,74 %
27.01.2022 10:18 4,9 C 4,4 C 1,7 C 96 % 1024,2 hPa 0,0 l/m 0 min 0 min 16 W/m 12,9 km/h (3 Bft) 100,00 %
27.01.2022 10:20 4,9 C 4,4 C 1,7 C 96 % 1024,2 hPa 0,0 l/m 0 min 0 min 20 W/m 22,5 km/h (4 Bft) 100,00 %
27.01.2022 10:22 4,9 C 4,4 C 1,7 C 96 % 1024,2 hPa 0,0 l/m 0 min 2 min 23 W/m 22,5 km/h (4 Bft) 97,87 %
27.01.2022 10:24 4,9 C 4,4 C 1,7 C 96 % 1024,2 hPa 0,0 l/m 0 min 0 min 26 W/m 16,1 km/h (3 Bft) 100,00 %
27.01.2022 10:26 4,9 C 4,4 C 1,7 C 96 % 1024,2 hPa 0,0 l/m 0 min 0 min 31 W/m 12,9 km/h (3 Bft) 100,00 %
27.01.2022 10:28 4,9 C 4,4 C 1,7 C 96 % 1024,2 hPa 0,0 l/m 0 min 2 min 32 W/m 19,3 km/h (3 Bft) 100,00 %
27.01.2022 10:30 4,9 C 4,4 C 1,7 C 96 % 1024,2 hPa 0,0 l/m 0 min 2 min 34 W/m 16,1 km/h (3 Bft) 100,00 %
27.01.2022 10:32 5,0 C 4,4 C 1,7 C 97 % 1024,2 hPa 0,0 l/m 0 min 2 min 31 W/m 16,1 km/h (3 Bft) 100,00 %
27.01.2022 10:34 5,0 C 4,4 C 1,7 C 97 % 1024,2 hPa 0,0 l/m 0 min 2 min 29 W/m 16,1 km/h (3 Bft) 100,00 %
27.01.2022 10:36 5,0 C 4,4 C 1,7 C 97 % 1024,2 hPa 0,0 l/m 0 min 2 min 36 W/m 22,5 km/h (4 Bft) 100,00 %
27.01.2022 10:38 5,0 C 4,4 C 1,7 C 97 % 1024,2 hPa 0,0 l/m 0 min 0 min 40 W/m 32,2 km/h (5 Bft) 100,00 %
27.01.2022 10:40 5,0 C 4,4 C 1,7 C 97 % 1024,2 hPa 0,0 l/m 0 min 2 min 40 W/m 16,1 km/h (3 Bft) 100,00 %
27.01.2022 10:42 5,0 C 4,4 C 1,7 C 97 % 1024,3 hPa 0,2 l/m 0 min 2 min 43 W/m 19,3 km/h (3 Bft) 97,87 %
27.01.2022 10:44 5,0 C 4,4 C 1,7 C 97 % 1024,2 hPa 0,0 l/m 0 min 0 min 38 W/m 22,5 km/h (4 Bft) 100,00 %
27.01.2022 10:46 5,1 C 4,4 C 1,7 C 97 % 1024,2 hPa 0,0 l/m 0 min 0 min 42 W/m 16,1 km/h (3 Bft) 100,00 %
27.01.2022 10:48 5,1 C 4,4 C 1,7 C 97 % 1024,3 hPa 0,0 l/m 0 min 2 min 44 W/m 22,5 km/h (4 Bft) 100,00 %
27.01.2022 10:50 5,1 C 4,4 C 1,7 C 97 % 1024,3 hPa 0,0 l/m 0 min 0 min 41 W/m 16,1 km/h (3 Bft) 95,74 %
27.01.2022 10:52 5,1 C 4,4 C 1,7 C 97 % 1024,3 hPa 0,0 l/m 0 min 0 min 44 W/m 19,3 km/h (3 Bft) 97,87 %
27.01.2022 10:54 5,1 C 4,4 C 1,7 C 97 % 1024,3 hPa 0,0 l/m 0 min 0 min 44 W/m 16,1 km/h (3 Bft) 100,00 %
27.01.2022 10:56 5,1 C 4,4 C 1,7 C 97 % 1024,2 hPa 0,0 l/m 0 min 0 min 44 W/m 19,3 km/h (3 Bft) 100,00 %
27.01.2022 10:58 5,1 C 4,4 C 1,7 C 97 % 1024,3 hPa 0,0 l/m 0 min 0 min 38 W/m 19,3 km/h (3 Bft) 97,87 %
27.01.2022 11:00 5,1 C 4,4 C 1,7 C 97 % 1024,3 hPa 0,0 l/m 0 min 0 min 44 W/m 12,9 km/h (3 Bft) 97,87 %
27.01.2022 11:02 5,1 C 4,4 C 1,7 C 97 % 1024,3 hPa 0,0 l/m 0 min 0 min 53 W/m 19,3 km/h (3 Bft) 100,00 %
27.01.2022 11:04 5,1 C 4,4 C 1,7 C 97 % 1024,3 hPa 0,0 l/m 0 min 0 min 56 W/m 12,9 km/h (3 Bft) 100,00 %
27.01.2022 11:06 5,1 C 4,4 C 2,2 C 97 % 1024,2 hPa 0,0 l/m 0 min 0 min 61 W/m 19,3 km/h (3 Bft) 100,00 %
27.01.2022 11:08 5,2 C 4,4 C 2,2 C 97 % 1024,2 hPa 0,0 l/m 0 min 0 min 59 W/m 12,9 km/h (3 Bft) 97,87 %
27.01.2022 11:10 5,2 C 4,4 C 2,2 C 97 % 1024,2 hPa 0,0 l/m 0 min 0 min 60 W/m 16,1 km/h (3 Bft) 97,87 %
27.01.2022 11:12 5,2 C 4,4 C 2,2 C 97 % 1024,2 hPa 0,0 l/m 0 min 0 min 61 W/m 12,9 km/h (3 Bft) 93,62 %
27.01.2022 11:14 5,2 C 4,4 C 2,2 C 97 % 1024,1 hPa 0,0 l/m 0 min 0 min 72 W/m 22,5 km/h (4 Bft) 95,74 %
27.01.2022 11:16 5,2 C 5,0 C 2,2 C 97 % 1024,1 hPa 0,0 l/m 0 min 0 min 80 W/m 19,3 km/h (3 Bft) 97,87 %
27.01.2022 11:18 5,2 C 5,0 C 2,2 C 97 % 1024,1 hPa 0,0 l/m 0 min 0 min 82 W/m 25,7 km/h (4 Bft) 97,83 %
27.01.2022 11:20 5,3 C 5,0 C 2,2 C 97 % 1024,1 hPa 0,0 l/m 0 min 0 min 71 W/m 22,5 km/h (4 Bft) 95,74 %
27.01.2022 11:22 5,3 C 5,0 C 2,2 C 97 % 1024,1 hPa 0,0 l/m 0 min 0 min 76 W/m 22,5 km/h (4 Bft) 93,62 %
27.01.2022 11:24 5,3 C 5,0 C 2,2 C 97 % 1024,1 hPa 0,0 l/m 0 min 0 min 70 W/m 19,3 km/h (3 Bft) 95,74 %
27.01.2022 11:26 5,3 C 5,0 C 2,2 C 98 % 1024,1 hPa 0,0 l/m 0 min 0 min 62 W/m 22,5 km/h (4 Bft) 93,62 %
27.01.2022 11:28 5,3 C 4,4 C 2,2 C 98 % 1024,0 hPa 0,0 l/m 0 min 0 min 54 W/m 22,5 km/h (4 Bft) 97,87 %
27.01.2022 11:30 5,3 C 4,4 C 2,2 C 98 % 1024,1 hPa 0,0 l/m 0 min 0 min 56 W/m 19,3 km/h (3 Bft) 97,83 %
27.01.2022 11:32 5,3 C 5,0 C 2,2 C 98 % 1024,1 hPa 0,0 l/m 0 min 0 min 60 W/m 16,1 km/h (3 Bft) 95,74 %
27.01.2022 11:34 5,3 C 5,0 C 2,2 C 98 % 1024,1 hPa 0,0 l/m 0 min 0 min 62 W/m 19,3 km/h (3 Bft) 95,74 %
27.01.2022 11:36 5,3 C 5,0 C 2,2 C 98 % 1024,1 hPa 0,0 l/m 0 min 0 min 65 W/m 25,7 km/h (4 Bft) 93,62 %
27.01.2022 11:38 5,4 C 5,0 C 2,2 C 98 % 1024,1 hPa 0,0 l/m 0 min 0 min 70 W/m 22,5 km/h (4 Bft) 95,74 %
27.01.2022 11:40 5,4 C 5,0 C 2,2 C 98 % 1024,2 hPa 0,0 l/m 0 min 0 min 82 W/m 16,1 km/h (3 Bft) 97,87 %
27.01.2022 11:42 5,4 C 5,0 C 2,2 C 98 % 1024,1 hPa 0,0 l/m 0 min 2 min 78 W/m 29,0 km/h (5 Bft) 97,83 %
27.01.2022 11:44 5,4 C 5,0 C 2,2 C 98 % 1024,1 hPa 0,2 l/m 0 min 2 min 65 W/m 19,3 km/h (3 Bft) 97,87 %
27.01.2022 11:46 5,5 C 5,0 C 2,2 C 98 % 1024,1 hPa 0,0 l/m 0 min 0 min 79 W/m 12,9 km/h (3 Bft) 97,87 %
27.01.2022 11:48 5,5 C 5,0 C 2,2 C 98 % 1024,0 hPa 0,0 l/m 0 min 0 min 81 W/m 22,5 km/h (4 Bft) 97,87 %
27.01.2022 11:50 5,6 C 5,0 C 2,8 C 98 % 1024,1 hPa 0,0 l/m 0 min 0 min 91 W/m 16,1 km/h (3 Bft) 97,87 %
27.01.2022 11:52 5,6 C 5,0 C 2,8 C 98 % 1024,0 hPa 0,0 l/m 0 min 0 min 102 W/m 19,3 km/h (3 Bft) 97,87 %
27.01.2022 11:54 5,6 C 5,0 C 2,8 C 98 % 1024,0 hPa 0,0 l/m 0 min 2 min 101 W/m 16,1 km/h (3 Bft) 97,83 %
27.01.2022 11:56 5,6 C 5,0 C 2,8 C 98 % 1024,0 hPa 0,0 l/m 0 min 0 min 102 W/m 19,3 km/h (3 Bft) 97,87 %
27.01.2022 11:58 5,6 C 5,0 C 2,8 C 98 % 1024,0 hPa 0,0 l/m 0 min 0 min 95 W/m 19,3 km/h (3 Bft) 97,87 %
27.01.2022 12:00 5,6 C 5,0 C 2,8 C 98 % 1024,0 hPa 0,0 l/m 0 min 0 min 91 W/m 32,2 km/h (5 Bft) 97,87 %
27.01.2022 12:02 5,6 C 5,0 C 2,8 C 98 % 1024,0 hPa 0,0 l/m 0 min 0 min 80 W/m 16,1 km/h (3 Bft) 95,74 %
27.01.2022 12:04 5,6 C 5,0 C 2,8 C 98 % 1023,9 hPa 0,0 l/m 0 min 0 min 85 W/m 25,7 km/h (4 Bft) 97,83 %
27.01.2022 12:08 5,7 C 5,0 C 2,8 C 98 % 1023,8 hPa 0,0 l/m 0 min 0 min 113 W/m 29,0 km/h (5 Bft) 96,84 %
27.01.2022 12:10 5,7 C 5,0 C 2,8 C 98 % 1023,9 hPa 0,0 l/m 0 min 0 min 97 W/m 19,3 km/h (3 Bft) 97,87 %
27.01.2022 12:12 5,7 C 5,0 C 2,8 C 98 % 1023,9 hPa 0,0 l/m 0 min 0 min 77 W/m 25,7 km/h (4 Bft) 97,87 %
27.01.2022 12:14 5,8 C 5,0 C 2,8 C 98 % 1023,9 hPa 0,0 l/m 0 min 0 min 66 W/m 22,5 km/h (4 Bft) 95,74 %
27.01.2022 12:16 5,8 C 5,0 C 2,8 C 98 % 1023,9 hPa 0,0 l/m 0 min 0 min 60 W/m 29,0 km/h (5 Bft) 97,83 %
27.01.2022 12:18 5,8 C 5,0 C 2,8 C 98 % 1023,8 hPa 0,0 l/m 0 min 0 min 63 W/m 16,1 km/h (3 Bft) 97,87 %
27.01.2022 12:20 5,8 C 5,6 C 2,8 C 98 % 1023,8 hPa 0,0 l/m 0 min 0 min 67 W/m 16,1 km/h (3 Bft) 100,00 %
27.01.2022 12:22 5,8 C 5,6 C 2,8 C 98 % 1023,8 hPa 0,0 l/m 0 min 0 min 54 W/m 22,5 km/h (4 Bft) 100,00 %
27.01.2022 12:24 5,8 C 5,6 C 2,8 C 98 % 1023,7 hPa 0,0 l/m 0 min 0 min 48 W/m 19,3 km/h (3 Bft) 97,87 %
27.01.2022 12:26 5,8 C 5,6 C 2,8 C 98 % 1023,7 hPa 0,0 l/m 0 min 0 min 45 W/m 19,3 km/h (3 Bft) 97,87 %
27.01.2022 12:28 5,8 C 5,0 C 2,8 C 98 % 1023,8 hPa 0,0 l/m 0 min 0 min 40 W/m 19,3 km/h (3 Bft) 97,83 %
27.01.2022 12:30 5,8 C 5,0 C 2,8 C 98 % 1023,8 hPa 0,0 l/m 0 min 0 min 33 W/m 16,1 km/h (3 Bft) 95,74 %
27.01.2022 12:32 5,8 C 5,0 C 2,8 C 98 % 1023,8 hPa 0,0 l/m 0 min 0 min 30 W/m 19,3 km/h (3 Bft) 95,74 %
27.01.2022 12:34 5,8 C 5,0 C 2,8 C 98 % 1023,8 hPa 0,0 l/m 0 min 0 min 22 W/m 19,3 km/h (3 Bft) 95,74 %
27.01.2022 12:36 5,8 C 5,0 C 2,8 C 98 % 1023,7 hPa 0,0 l/m 0 min 0 min 20 W/m 22,5 km/h (4 Bft) 97,87 %
27.01.2022 12:38 5,8 C 5,0 C 2,8 C 98 % 1023,7 hPa 0,0 l/m 0 min 0 min 19 W/m 16,1 km/h (3 Bft) 95,74 %
27.01.2022 12:40 5,8 C 5,0 C 2,8 C 98 % 1023,7 hPa 0,0 l/m 0 min 0 min 17 W/m 19,3 km/h (3 Bft) 97,83 %
27.01.2022 12:42 5,8 C 5,0 C 2,8 C 98 % 1023,6 hPa 0,0 l/m 0 min 0 min 18 W/m 22,5 km/h (4 Bft) 97,87 %
27.01.2022 12:44 5,8 C 5,0 C 2,8 C 98 % 1023,6 hPa 0,0 l/m 0 min 0 min 21 W/m 41,8 km/h (6 Bft) 97,87 %
27.01.2022 12:46 5,8 C 5,0 C 2,8 C 98 % 1023,5 hPa 0,0 l/m 0 min 0 min 18 W/m 29,0 km/h (5 Bft) 95,74 %
27.01.2022 12:48 5,8 C 5,0 C 2,8 C 98 % 1023,6 hPa 0,0 l/m 0 min 0 min 15 W/m 22,5 km/h (4 Bft) 95,74 %
27.01.2022 12:50 5,8 C 5,0 C 2,8 C 98 % 1023,5 hPa 0,0 l/m 0 min 0 min 26 W/m 19,3 km/h (3 Bft) 95,74 %
27.01.2022 12:52 5,8 C 5,0 C 2,8 C 98 % 1023,5 hPa 0,0 l/m 0 min 0 min 26 W/m 12,9 km/h (3 Bft) 97,83 %
27.01.2022 12:54 5,8 C 5,0 C 2,8 C 98 % 1023,5 hPa 0,0 l/m 0 min 2 min 29 W/m 19,3 km/h (3 Bft) 97,87 %
27.01.2022 12:56 5,8 C 5,0 C 2,8 C 98 % 1023,4 hPa 0,0 l/m 0 min 2 min 23 W/m 19,3 km/h (3 Bft) 97,87 %
27.01.2022 12:58 5,8 C 5,0 C 2,8 C 98 % 1023,4 hPa 0,0 l/m 0 min 2 min 24 W/m 22,5 km/h (4 Bft) 97,87 %
27.01.2022 13:00 5,8 C 5,0 C 2,8 C 98 % 1023,4 hPa 0,0 l/m 0 min 0 min 30 W/m 29,0 km/h (5 Bft) 95,74 %
27.01.2022 13:02 5,9 C 5,0 C 2,8 C 98 % 1023,5 hPa 0,0 l/m 0 min 0 min 32 W/m 16,1 km/h (3 Bft) 97,87 %
27.01.2022 13:04 5,9 C 5,0 C 2,8 C 98 % 1023,4 hPa 0,0 l/m 0 min 0 min 34 W/m 16,1 km/h (3 Bft) 93,48 %
27.01.2022 13:06 5,9 C 5,6 C 2,8 C 98 % 1023,4 hPa 0,0 l/m 0 min 0 min 47 W/m 16,1 km/h (3 Bft) 95,74 %
27.01.2022 13:08 5,9 C 5,6 C 3,3 C 98 % 1023,5 hPa 0,0 l/m 0 min 0 min 41 W/m 16,1 km/h (3 Bft) 95,74 %
27.01.2022 13:10 5,9 C 5,6 C 3,3 C 98 % 1023,5 hPa 0,0 l/m 0 min 0 min 35 W/m 16,1 km/h (3 Bft) 95,74 %
27.01.2022 13:12 5,9 C 5,6 C 3,3 C 98 % 1023,4 hPa 0,0 l/m 0 min 0 min 40 W/m 19,3 km/h (3 Bft) 97,87 %
27.01.2022 13:14 5,9 C 5,6 C 3,3 C 98 % 1023,5 hPa 0,0 l/m 0 min 0 min 37 W/m 19,3 km/h (3 Bft) 97,87 %
27.01.2022 13:16 6,0 C 5,6 C 3,3 C 98 % 1023,4 hPa 0,0 l/m 0 min 0 min 35 W/m 16,1 km/h (3 Bft) 95,65 %
27.01.2022 13:18 6,0 C 5,6 C 3,3 C 98 % 1023,4 hPa 0,0 l/m 0 min 0 min 34 W/m 6,4 km/h (2 Bft) 95,74 %
27.01.2022 13:20 6,0 C 5,6 C 3,3 C 98 % 1023,3 hPa 0,0 l/m 0 min 0 min 34 W/m 19,3 km/h (3 Bft) 97,87 %
27.01.2022 13:22 6,1 C 5,6 C 3,3 C 98 % 1023,4 hPa 0,0 l/m 0 min 0 min 38 W/m 19,3 km/h (3 Bft) 97,87 %
27.01.2022 13:24 6,1 C 5,6 C 3,3 C 98 % 1023,4 hPa 0,0 l/m 0 min 0 min 36 W/m 16,1 km/h (3 Bft) 97,87 %
27.01.2022 13:26 6,1 C 5,6 C 3,3 C 98 % 1023,3 hPa 0,0 l/m 0 min 0 min 40 W/m 16,1 km/h (3 Bft) 95,65 %
27.01.2022 13:28 6,1 C 5,6 C 3,3 C 98 % 1023,3 hPa 0,0 l/m 0 min 0 min 36 W/m 19,3 km/h (3 Bft) 95,74 %
27.01.2022 13:30 6,1 C 5,6 C 3,3 C 98 % 1023,2 hPa 0,0 l/m 0 min 0 min 31 W/m 19,3 km/h (3 Bft) 97,87 %
27.01.2022 13:32 6,1 C 5,6 C 3,3 C 98 % 1023,3 hPa 0,0 l/m 0 min 0 min 31 W/m 19,3 km/h (3 Bft) 97,87 %
27.01.2022 13:34 6,1 C 5,6 C 3,3 C 98 % 1023,2 hPa 0,0 l/m 0 min 0 min 32 W/m 25,7 km/h (4 Bft) 95,74 %
27.01.2022 13:36 6,2 C 5,6 C 3,3 C 98 % 1023,2 hPa 0,0 l/m 0 min 0 min 27 W/m 16,1 km/h (3 Bft) 100,00 %
27.01.2022 13:38 6,2 C 5,6 C 3,3 C 99 % 1023,3 hPa 0,0 l/m 0 min 0 min 21 W/m 16,1 km/h (3 Bft) 100,00 %
27.01.2022 13:40 6,2 C 5,6 C 3,3 C 98 % 1023,3 hPa 0,0 l/m 0 min 0 min 21 W/m 25,7 km/h (4 Bft) 100,00 %
27.01.2022 13:42 6,2 C 5,6 C 3,3 C 98 % 1023,2 hPa 0,0 l/m 0 min 0 min 18 W/m 19,3 km/h (3 Bft) 100,00 %
27.01.2022 13:44 6,2 C 5,6 C 3,3 C 98 % 1023,2 hPa 0,0 l/m 0 min 0 min 15 W/m 22,5 km/h (4 Bft) 97,87 %
27.01.2022 13:46 6,2 C 5,6 C 3,3 C 98 % 1023,2 hPa 0,2 l/m 0 min 0 min 13 W/m 19,3 km/h (3 Bft) 97,87 %
27.01.2022 13:48 6,2 C 5,6 C 3,3 C 98 % 1023,3 hPa 0,0 l/m 0 min 0 min 16 W/m 19,3 km/h (3 Bft) 100,00 %
27.01.2022 13:50 6,3 C 5,6 C 3,3 C 98 % 1023,3 hPa 0,0 l/m 0 min 2 min 17 W/m 12,9 km/h (3 Bft) 100,00 %
27.01.2022 13:52 6,3 C 5,6 C 3,3 C 98 % 1023,2 hPa 0,0 l/m 0 min 2 min 19 W/m 16,1 km/h (3 Bft) 100,00 %
27.01.2022 13:54 6,3 C 5,6 C 3,3 C 98 % 1023,2 hPa 0,0 l/m 0 min 2 min 21 W/m 19,3 km/h (3 Bft) 100,00 %
27.01.2022 13:56 6,3 C 5,6 C 3,3 C 98 % 1023,2 hPa 0,0 l/m 0 min 2 min 20 W/m 16,1 km/h (3 Bft) 100,00 %
27.01.2022 13:58 6,3 C 5,6 C 3,3 C 98 % 1023,2 hPa 0,0 l/m 0 min 0 min 16 W/m 16,1 km/h (3 Bft) 97,87 %
27.01.2022 14:00 6,3 C 5,6 C 3,3 C 98 % 1023,1 hPa 0,0 l/m 0 min 0 min 20 W/m 16,1 km/h (3 Bft) 100,00 %
27.01.2022 14:02 6,3 C 5,6 C 3,3 C 98 % 1023,1 hPa 0,0 l/m 0 min 0 min 32 W/m 12,9 km/h (3 Bft) 100,00 %
27.01.2022 14:04 6,3 C 5,6 C 3,3 C 98 % 1023,1 hPa 0,0 l/m 0 min 0 min 33 W/m 19,3 km/h (3 Bft) 100,00 %
27.01.2022 14:06 6,3 C 5,6 C 3,3 C 98 % 1023,1 hPa 0,0 l/m 0 min 0 min 32 W/m 12,9 km/h (3 Bft) 100,00 %
27.01.2022 14:08 6,3 C 5,6 C 3,9 C 99 % 1023,1 hPa 0,0 l/m 0 min 0 min 42 W/m 12,9 km/h (3 Bft) 97,87 %
27.01.2022 14:10 6,3 C 5,6 C 3,9 C 99 % 1023,0 hPa 0,0 l/m 0 min 0 min 39 W/m 22,5 km/h (4 Bft) 100,00 %
27.01.2022 14:12 6,4 C 5,6 C 3,9 C 99 % 1023,0 hPa 0,0 l/m 0 min 0 min 31 W/m 12,9 km/h (3 Bft) 100,00 %
27.01.2022 14:14 6,4 C 5,6 C 3,9 C 99 % 1023,0 hPa 0,0 l/m 0 min 0 min 30 W/m 22,5 km/h (4 Bft) 100,00 %
27.01.2022 14:16 6,4 C 5,6 C 3,9 C 99 % 1023,0 hPa 0,2 l/m 0 min 0 min 31 W/m 16,1 km/h (3 Bft) 97,87 %
27.01.2022 14:18 6,4 C 5,6 C 3,9 C 99 % 1022,9 hPa 0,0 l/m 0 min 0 min 31 W/m 16,1 km/h (3 Bft) 97,87 %
27.01.2022 14:20 6,4 C 5,6 C 3,9 C 99 % 1023,0 hPa 0,0 l/m 0 min 0 min 29 W/m 12,9 km/h (3 Bft) 95,74 %
27.01.2022 14:22 6,4 C 5,6 C 3,9 C 99 % 1022,9 hPa 0,0 l/m 0 min 0 min 26 W/m 12,9 km/h (3 Bft) 97,87 %
27.01.2022 14:24 6,4 C 5,6 C 3,9 C 99 % 1022,9 hPa 0,0 l/m 0 min 0 min 29 W/m 19,3 km/h (3 Bft) 95,74 %
27.01.2022 14:26 6,5 C 5,6 C 3,9 C 99 % 1022,8 hPa 0,0 l/m 0 min 0 min 26 W/m 16,1 km/h (3 Bft) 95,65 %
27.01.2022 14:28 6,5 C 5,6 C 3,9 C 99 % 1022,9 hPa 0,0 l/m 0 min 0 min 23 W/m 19,3 km/h (3 Bft) 97,87 %
27.01.2022 14:30 6,5 C 5,6 C 3,9 C 99 % 1022,9 hPa 0,0 l/m 0 min 0 min 20 W/m 12,9 km/h (3 Bft) 97,87 %
27.01.2022 14:32 6,5 C 5,6 C 3,9 C 99 % 1022,9 hPa 0,0 l/m 0 min 0 min 20 W/m 16,1 km/h (3 Bft) 97,87 %
27.01.2022 14:34 6,5 C 5,6 C 3,9 C 99 % 1022,9 hPa 0,0 l/m 0 min 0 min 22 W/m 16,1 km/h (3 Bft) 97,87 %
27.01.2022 14:36 6,5 C 6,1 C 3,9 C 99 % 1022,9 hPa 0,0 l/m 0 min 0 min 24 W/m 12,9 km/h (3 Bft) 97,87 %
27.01.2022 14:38 6,5 C 6,1 C 3,9 C 99 % 1022,9 hPa 0,0 l/m 0 min 0 min 22 W/m 12,9 km/h (3 Bft) 97,83 %
27.01.2022 14:40 6,5 C 6,1 C 3,9 C 99 % 1022,9 hPa 0,0 l/m 0 min 0 min 19 W/m 16,1 km/h (3 Bft) 97,87 %
27.01.2022 14:42 6,6 C 6,1 C 3,9 C 99 % 1022,9 hPa 0,0 l/m 0 min 0 min 20 W/m 22,5 km/h (4 Bft) 97,87 %
27.01.2022 14:44 6,6 C 6,1 C 3,9 C 99 % 1023,0 hPa 0,0 l/m 0 min 0 min 20 W/m 16,1 km/h (3 Bft) 97,87 %
27.01.2022 14:46 6,6 C 6,1 C 3,9 C 99 % 1023,0 hPa 0,0 l/m 0 min 0 min 19 W/m 12,9 km/h (3 Bft) 97,87 %
27.01.2022 14:48 6,6 C 6,1 C 3,9 C 99 % 1022,9 hPa 0,0 l/m 0 min 0 min 17 W/m 16,1 km/h (3 Bft) 97,87 %
27.01.2022 14:50 6,6 C 6,1 C 3,9 C 99 % 1023,0 hPa 0,0 l/m 0 min 0 min 17 W/m 19,3 km/h (3 Bft) 97,83 %
27.01.2022 14:52 6,7 C 6,1 C 4,4 C 99 % 1023,0 hPa 0,0 l/m 0 min 0 min 18 W/m 12,9 km/h (3 Bft) 91,49 %
27.01.2022 14:54 6,7 C 6,1 C 4,4 C 99 % 1022,9 hPa 0,0 l/m 0 min 0 min 16 W/m 12,9 km/h (3 Bft) 97,87 %
27.01.2022 14:56 6,7 C 6,1 C 4,4 C 99 % 1022,9 hPa 0,0 l/m 0 min 0 min 15 W/m 16,1 km/h (3 Bft) 97,87 %
27.01.2022 14:58 6,7 C 6,1 C 4,4 C 99 % 1023,0 hPa 0,0 l/m 0 min 0 min 11 W/m 25,7 km/h (4 Bft) 97,87 %
27.01.2022 15:00 6,8 C 6,1 C 4,4 C 99 % 1023,0 hPa 0,0 l/m 0 min 0 min 11 W/m 22,5 km/h (4 Bft) 95,65 %
27.01.2022 15:02 6,8 C 6,1 C 4,4 C 99 % 1023,0 hPa 0,0 l/m 0 min 0 min 11 W/m 16,1 km/h (3 Bft) 95,74 %
27.01.2022 15:04 6,8 C 6,1 C 4,4 C 99 % 1023,0 hPa 0,0 l/m 0 min 0 min 7 W/m 12,9 km/h (3 Bft) 97,87 %
27.01.2022 15:06 6,8 C 6,1 C 4,4 C 99 % 1023,0 hPa 0,0 l/m 0 min 0 min 8 W/m 22,5 km/h (4 Bft) 97,87 %
27.01.2022 15:08 6,8 C 6,1 C 4,4 C 99 % 1023,0 hPa 0,0 l/m 0 min 0 min 7 W/m 22,5 km/h (4 Bft) 97,87 %
27.01.2022 15:10 6,8 C 6,1 C 4,4 C 99 % 1023,0 hPa 0,0 l/m 0 min 0 min 7 W/m 22,5 km/h (4 Bft) 97,87 %
27.01.2022 15:12 6,9 C 6,1 C 4,4 C 99 % 1023,0 hPa 0,0 l/m 0 min 0 min 7 W/m 12,9 km/h (3 Bft) 100,00 %
27.01.2022 15:14 6,9 C 6,1 C 4,4 C 99 % 1022,9 hPa 0,0 l/m 0 min 0 min 7 W/m 16,1 km/h (3 Bft) 97,87 %
27.01.2022 15:16 6,9 C 6,1 C 4,4 C 99 % 1022,9 hPa 0,0 l/m 0 min 0 min 7 W/m 16,1 km/h (3 Bft) 95,74 %
27.01.2022 15:18 6,9 C 6,1 C 4,4 C 99 % 1022,9 hPa 0,0 l/m 0 min 0 min 7 W/m 16,1 km/h (3 Bft) 95,74 %
27.01.2022 15:20 6,9 C 6,7 C 4,4 C 99 % 1023,0 hPa 0,0 l/m 0 min 0 min 7 W/m 22,5 km/h (4 Bft) 95,74 %
27.01.2022 15:22 7,1 C 6,7 C 4,4 C 99 % 1022,9 hPa 0,0 l/m 0 min 0 min 5 W/m 16,1 km/h (3 Bft) 93,62 %
27.01.2022 15:24 7,1 C 6,7 C 4,4 C 99 % 1023,0 hPa 0,0 l/m 0 min 0 min 5 W/m 19,3 km/h (3 Bft) 93,48 %
27.01.2022 15:26 7,1 C 6,7 C 4,4 C 99 % 1023,0 hPa 0,0 l/m 0 min 0 min 5 W/m 19,3 km/h (3 Bft) 91,49 %
27.01.2022 15:28 7,2 C 6,7 C 4,4 C 99 % 1023,0 hPa 0,0 l/m 0 min 0 min 7 W/m 22,5 km/h (4 Bft) 95,74 %
27.01.2022 15:30 7,2 C 6,7 C 5,0 C 99 % 1023,0 hPa 0,0 l/m 0 min 0 min 9 W/m 19,3 km/h (3 Bft) 95,74 %
27.01.2022 15:32 7,2 C 6,7 C 5,0 C 99 % 1023,0 hPa 0,0 l/m 0 min 0 min 8 W/m 19,3 km/h (3 Bft) 95,74 %
27.01.2022 15:34 7,3 C 6,7 C 5,0 C 99 % 1023,0 hPa 0,0 l/m 0 min 0 min 7 W/m 16,1 km/h (3 Bft) 97,87 %
27.01.2022 15:36 7,3 C 6,7 C 5,0 C 99 % 1023,0 hPa 0,0 l/m 0 min 0 min 9 W/m 22,5 km/h (4 Bft) 97,83 %
27.01.2022 15:38 7,3 C 6,7 C 5,0 C 99 % 1023,1 hPa 0,0 l/m 0 min 0 min 12 W/m 22,5 km/h (4 Bft) 97,87 %
27.01.2022 15:40 7,3 C 6,7 C 5,0 C 99 % 1023,2 hPa 0,0 l/m 0 min 0 min 15 W/m 12,9 km/h (3 Bft) 97,87 %
27.01.2022 15:42 7,3 C 6,7 C 5,0 C 99 % 1023,1 hPa 0,0 l/m 0 min 0 min 13 W/m 19,3 km/h (3 Bft) 97,92 %
27.01.2022 15:44 7,3 C 6,7 C 5,0 C 99 % 1023,2 hPa 0,0 l/m 0 min 0 min 11 W/m 12,9 km/h (3 Bft) 97,87 %
27.01.2022 15:46 7,4 C 6,7 C 5,0 C 99 % 1023,1 hPa 0,0 l/m 0 min 0 min 12 W/m 22,5 km/h (4 Bft) 97,87 %
27.01.2022 15:48 7,4 C 6,7 C 5,0 C 99 % 1023,2 hPa 0,0 l/m 0 min 0 min 11 W/m 38,6 km/h (5 Bft) 95,65 %
27.01.2022 15:50 7,4 C 6,7 C 5,0 C 99 % 1023,1 hPa 0,0 l/m 0 min 0 min 11 W/m 16,1 km/h (3 Bft) 97,87 %
27.01.2022 15:52 7,4 C 6,7 C 5,0 C 99 % 1023,1 hPa 0,0 l/m 0 min 0 min 10 W/m 22,5 km/h (4 Bft) 97,87 %
27.01.2022 15:54 7,4 C 6,7 C 5,0 C 99 % 1023,1 hPa 0,0 l/m 0 min 0 min 9 W/m 16,1 km/h (3 Bft) 97,87 %
27.01.2022 15:56 7,4 C 6,7 C 5,0 C 99 % 1023,2 hPa 0,0 l/m 0 min 0 min 12 W/m 16,1 km/h (3 Bft) 95,74 %
27.01.2022 15:58 7,4 C 6,7 C 5,0 C 99 % 1023,2 hPa 0,0 l/m 0 min 0 min 14 W/m 12,9 km/h (3 Bft) 97,87 %
27.01.2022 16:00 7,4 C 6,7 C 5,0 C 99 % 1023,1 hPa 0,0 l/m 0 min 0 min 22 W/m 12,9 km/h (3 Bft) 97,83 %
27.01.2022 16:02 7,4 C 6,7 C 5,0 C 99 % 1023,2 hPa 0,0 l/m 0 min 0 min 13 W/m 25,7 km/h (4 Bft) 95,74 %
27.01.2022 16:04 7,4 C 6,7 C 5,0 C 99 % 1023,1 hPa 0,0 l/m 0 min 0 min 14 W/m 19,3 km/h (3 Bft) 100,00 %
27.01.2022 16:06 7,5 C 6,7 C 5,0 C 99 % 1023,2 hPa 0,0 l/m 0 min 0 min 9 W/m 22,5 km/h (4 Bft) 100,00 %
27.01.2022 16:08 7,5 C 6,7 C 5,0 C 99 % 1023,2 hPa 0,0 l/m 0 min 2 min 8 W/m 22,5 km/h (4 Bft) 100,00 %
27.01.2022 16:10 7,5 C 6,7 C 5,0 C 99 % 1023,2 hPa 0,0 l/m 0 min 0 min 6 W/m 16,1 km/h (3 Bft) 100,00 %
27.01.2022 16:12 7,5 C 6,7 C 5,0 C 99 % 1023,2 hPa 0,0 l/m 0 min 0 min 5 W/m 19,3 km/h (3 Bft) 97,87 %
27.01.2022 16:14 7,5 C 7,2 C 5,0 C 99 % 1023,1 hPa 0,0 l/m 0 min 0 min 1 W/m 16,1 km/h (3 Bft) 97,87 %
27.01.2022 16:16 7,5 C 7,2 C 5,0 C 99 % 1023,3 hPa 0,0 l/m 0 min 0 min 0 W/m 16,1 km/h (3 Bft) 100,00 %
27.01.2022 16:18 7,6 C 7,2 C 5,0 C 99 % 1023,3 hPa 0,0 l/m 0 min 0 min 0 W/m 12,9 km/h (3 Bft) 100,00 %
27.01.2022 16:20 7,6 C 6,7 C 5,0 C 99 % 1023,3 hPa 0,0 l/m 0 min 0 min 0 W/m 16,1 km/h (3 Bft) 100,00 %
27.01.2022 16:22 7,6 C 7,2 C 5,0 C 99 % 1023,3 hPa 0,0 l/m 0 min 0 min 0 W/m 16,1 km/h (3 Bft) 97,83 %
27.01.2022 16:24 7,6 C 7,2 C 5,0 C 99 % 1023,3 hPa 0,0 l/m 0 min 0 min 0 W/m 9,7 km/h (2 Bft) 100,00 %
27.01.2022 16:26 7,6 C 7,2 C 5,0 C 99 % 1023,2 hPa 0,0 l/m 0 min 0 min 0 W/m 16,1 km/h (3 Bft) 100,00 %
27.01.2022 16:28 7,6 C 7,2 C 5,0 C 99 % 1023,2 hPa 0,0 l/m 0 min 0 min 1 W/m 16,1 km/h (3 Bft) 100,00 %
27.01.2022 16:30 7,6 C 7,2 C 5,0 C 99 % 1023,2 hPa 0,0 l/m 0 min 0 min 5 W/m 12,9 km/h (3 Bft) 97,87 %
27.01.2022 16:32 7,6 C 7,2 C 5,0 C 99 % 1023,3 hPa 0,0 l/m 0 min 0 min 8 W/m 12,9 km/h (3 Bft) 100,00 %
27.01.2022 16:34 7,6 C 7,2 C 5,0 C 99 % 1023,3 hPa 0,0 l/m 0 min 0 min 5 W/m 19,3 km/h (3 Bft) 100,00 %
27.01.2022 16:36 7,6 C 7,2 C 5,0 C 99 % 1023,3 hPa 0,0 l/m 0 min 0 min 0 W/m 22,5 km/h (4 Bft) 100,00 %
27.01.2022 16:38 7,6 C 7,2 C 5,0 C 99 % 1023,4 hPa 0,0 l/m 0 min 0 min 2 W/m 16,1 km/h (3 Bft) 100,00 %
27.01.2022 16:40 7,6 C 7,2 C 5,0 C 98 % 1023,4 hPa 0,0 l/m 0 min 0 min 2 W/m 19,3 km/h (3 Bft) 100,00 %
27.01.2022 16:42 7,6 C 7,2 C 5,0 C 98 % 1023,4 hPa 0,0 l/m 0 min 0 min 0 W/m 19,3 km/h (3 Bft) 100,00 %
27.01.2022 16:44 7,6 C 7,2 C 5,0 C 98 % 1023,4 hPa 0,0 l/m 0 min 0 min 0 W/m 16,1 km/h (3 Bft) 97,87 %
27.01.2022 16:46 7,6 C 7,2 C 5,0 C 98 % 1023,5 hPa 0,0 l/m 0 min 0 min 0 W/m 19,3 km/h (3 Bft) 97,83 %
27.01.2022 16:48 7,7 C 7,2 C 5,0 C 98 % 1023,5 hPa 0,0 l/m 0 min 0 min 0 W/m 16,1 km/h (3 Bft) 98,00 %
27.01.2022 16:50 7,6 C 7,2 C 5,0 C 98 % 1023,6 hPa 0,0 l/m 0 min 2 min 0 W/m 25,7 km/h (4 Bft) 100,00 %
27.01.2022 16:52 7,6 C 7,2 C 5,0 C 98 % 1023,6 hPa 0,0 l/m 0 min 2 min 0 W/m 19,3 km/h (3 Bft) 100,00 %
27.01.2022 16:54 7,6 C 7,2 C 5,0 C 98 % 1023,6 hPa 0,0 l/m 0 min 0 min 0 W/m 16,1 km/h (3 Bft) 97,87 %
27.01.2022 16:56 7,7 C 7,2 C 5,0 C 98 % 1023,5 hPa 0,0 l/m 0 min 0 min 0 W/m 12,9 km/h (3 Bft) 97,87 %
27.01.2022 16:58 7,7 C 6,7 C 5,0 C 98 % 1023,6 hPa 0,0 l/m 0 min 0 min 0 W/m 22,5 km/h (4 Bft) 95,74 %
27.01.2022 17:00 7,6 C 6,7 C 5,0 C 98 % 1023,6 hPa 0,0 l/m 0 min 0 min 0 W/m 9,7 km/h (2 Bft) 95,74 %
27.01.2022 17:02 7,6 C 7,2 C 5,0 C 98 % 1023,5 hPa 0,0 l/m 0 min 0 min 0 W/m 12,9 km/h (3 Bft) 95,74 %
27.01.2022 17:04 7,6 C 7,2 C 5,0 C 98 % 1023,5 hPa 0,0 l/m 0 min 0 min 0 W/m 16,1 km/h (3 Bft) 93,48 %
27.01.2022 17:06 7,6 C 7,2 C 5,0 C 98 % 1023,5 hPa 0,0 l/m 0 min 0 min 0 W/m 19,3 km/h (3 Bft) 95,74 %
27.01.2022 17:08 7,6 C 6,7 C 5,0 C 98 % 1023,6 hPa 0,0 l/m 0 min 0 min 0 W/m 16,1 km/h (3 Bft) 95,74 %
27.01.2022 17:10 7,6 C 6,7 C 5,0 C 98 % 1023,6 hPa 0,0 l/m 0 min 0 min 0 W/m 12,9 km/h (3 Bft) 95,74 %
27.01.2022 17:12 7,6 C 6,7 C 5,0 C 98 % 1023,5 hPa 0,0 l/m 0 min 0 min 0 W/m 12,9 km/h (3 Bft) 95,74 %
27.01.2022 17:14 7,6 C 6,7 C 5,0 C 98 % 1023,5 hPa 0,0 l/m 0 min 0 min 0 W/m 12,9 km/h (3 Bft) 95,74 %
27.01.2022 17:16 7,6 C 6,7 C 5,0 C 98 % 1023,5 hPa 0,0 l/m 0 min 0 min 0 W/m 12,9 km/h (3 Bft) 93,48 %
27.01.2022 17:18 7,6 C 6,7 C 5,0 C 98 % 1023,5 hPa 0,0 l/m 0 min 0 min 0 W/m 16,1 km/h (3 Bft) 95,74 %
27.01.2022 17:20 7,6 C 6,7 C 5,0 C 98 % 1023,6 hPa 0,0 l/m 0 min 0 min 0 W/m 16,1 km/h (3 Bft) 95,74 %
27.01.2022 17:22 7,6 C 6,7 C 5,0 C 98 % 1023,6 hPa 0,0 l/m 0 min 0 min 0 W/m 9,7 km/h (2 Bft) 93,62 %
27.01.2022 17:24 7,6 C 6,7 C 5,0 C 98 % 1023,7 hPa 0,0 l/m 0 min 0 min 0 W/m 12,9 km/h (3 Bft) 95,74 %
27.01.2022 17:26 7,6 C 6,7 C 5,0 C 98 % 1023,6 hPa 0,2 l/m 0 min 0 min 0 W/m 16,1 km/h (3 Bft) 95,65 %
27.01.2022 17:28 7,6 C 6,7 C 5,0 C 98 % 1023,6 hPa 0,0 l/m 0 min 2 min 0 W/m 16,1 km/h (3 Bft) 97,87 %
27.01.2022 17:30 7,6 C 6,7 C 5,0 C 98 % 1023,6 hPa 0,0 l/m 0 min 2 min 0 W/m 16,1 km/h (3 Bft) 97,87 %
27.01.2022 17:32 7,6 C 6,7 C 5,0 C 98 % 1023,6 hPa 0,0 l/m 0 min 2 min 0 W/m 16,1 km/h (3 Bft) 97,87 %
27.01.2022 17:34 7,6 C 6,7 C 5,0 C 98 % 1023,6 hPa 0,0 l/m 0 min 2 min 0 W/m 16,1 km/h (3 Bft) 97,87 %
27.01.2022 17:36 7,6 C 6,7 C 5,0 C 98 % 1023,7 hPa 0,2 l/m 0 min 2 min 0 W/m 9,7 km/h (2 Bft) 95,74 %
27.01.2022 17:38 7,6 C 6,7 C 5,0 C 98 % 1023,7 hPa 0,2 l/m 0 min 2 min 0 W/m 9,7 km/h (2 Bft) 97,87 %
27.01.2022 17:40 7,6 C 6,7 C 5,0 C 98 % 1023,7 hPa 0,0 l/m 0 min 0 min 0 W/m 12,9 km/h (3 Bft) 100,00 %
27.01.2022 17:42 7,6 C 6,7 C 5,0 C 98 % 1023,8 hPa 0,0 l/m 0 min 2 min 0 W/m 9,7 km/h (2 Bft) 100,00 %
27.01.2022 17:44 7,6 C 6,7 C 5,0 C 98 % 1023,7 hPa 0,0 l/m 0 min 2 min 0 W/m 16,1 km/h (3 Bft) 100,00 %
27.01.2022 17:46 7,6 C 6,7 C 5,0 C 98 % 1023,9 hPa 0,0 l/m 0 min 2 min 0 W/m 12,9 km/h (3 Bft) 100,00 %
27.01.2022 17:48 7,6 C 6,7 C 5,0 C 98 % 1023,9 hPa 0,0 l/m 0 min 2 min 0 W/m 12,9 km/h (3 Bft) 100,00 %
27.01.2022 17:50 7,6 C 6,7 C 5,0 C 98 % 1024,0 hPa 0,0 l/m 0 min 0 min 0 W/m 9,7 km/h (2 Bft) 97,87 %
27.01.2022 17:52 7,6 C 6,7 C 5,0 C 98 % 1023,9 hPa 0,0 l/m 0 min 2 min 0 W/m 16,1 km/h (3 Bft) 100,00 %
27.01.2022 17:54 7,5 C 6,7 C 5,0 C 98 % 1024,0 hPa 0,0 l/m 0 min 2 min 0 W/m 19,3 km/h (3 Bft) 100,00 %
27.01.2022 17:56 7,5 C 6,7 C 5,0 C 98 % 1024,0 hPa 0,0 l/m 0 min 0 min 0 W/m 22,5 km/h (4 Bft) 100,00 %
27.01.2022 17:58 7,5 C 6,7 C 5,0 C 98 % 1024,0 hPa 0,0 l/m 0 min 2 min 0 W/m 16,1 km/h (3 Bft) 100,00 %
27.01.2022 18:00 7,4 C 6,7 C 5,0 C 98 % 1024,1 hPa 0,0 l/m 0 min 0 min 0 W/m 12,9 km/h (3 Bft) 100,00 %
27.01.2022 18:02 7,4 C 6,7 C 5,0 C 98 % 1024,1 hPa 0,0 l/m 0 min 0 min 0 W/m 16,1 km/h (3 Bft) 100,00 %
27.01.2022 18:04 7,4 C 6,7 C 5,0 C 98 % 1024,1 hPa 0,0 l/m 0 min 2 min 0 W/m 12,9 km/h (3 Bft) 100,00 %
27.01.2022 18:08 7,4 C 6,7 C 5,0 C 98 % 1024,1 hPa 0,0 l/m 0 min 0 min 0 W/m 19,3 km/h (3 Bft) 100,00 %
27.01.2022 18:10 7,4 C 6,7 C 5,0 C 98 % 1024,1 hPa 0,0 l/m 0 min 0 min 0 W/m 22,5 km/h (4 Bft) 100,00 %
27.01.2022 18:12 7,4 C 6,7 C 5,0 C 98 % 1024,1 hPa 0,0 l/m 0 min 0 min 0 W/m 16,1 km/h (3 Bft) 100,00 %
27.01.2022 18:14 7,3 C 6,7 C 5,0 C 98 % 1024,1 hPa 0,0 l/m 0 min 0 min 0 W/m 16,1 km/h (3 Bft) 97,87 %
27.01.2022 18:16 7,3 C 6,7 C 5,0 C 98 % 1024,1 hPa 0,0 l/m 0 min 0 min 0 W/m 12,9 km/h (3 Bft) 100,00 %
27.01.2022 18:18 7,3 C 6,7 C 4,4 C 98 % 1024,2 hPa 0,0 l/m 0 min 0 min 0 W/m 12,9 km/h (3 Bft) 97,83 %
27.01.2022 18:20 7,3 C 6,7 C 4,4 C 98 % 1024,2 hPa 0,0 l/m 0 min 0 min 0 W/m 19,3 km/h (3 Bft) 95,74 %
27.01.2022 18:22 7,2 C 6,7 C 4,4 C 98 % 1024,2 hPa 0,0 l/m 0 min 0 min 0 W/m 12,9 km/h (3 Bft) 97,87 %
27.01.2022 18:24 7,2 C 6,7 C 4,4 C 98 % 1024,2 hPa 0,0 l/m 0 min 0 min 0 W/m 12,9 km/h (3 Bft) 98,11 %
27.01.2022 18:26 7,2 C 6,1 C 4,4 C 98 % 1024,2 hPa 0,0 l/m 0 min 0 min 0 W/m 12,9 km/h (3 Bft) 95,74 %
27.01.2022 18:28 7,1 C 6,1 C 4,4 C 97 % 1024,2 hPa 0,0 l/m 0 min 0 min 0 W/m 16,1 km/h (3 Bft) 97,87 %
27.01.2022 18:30 7,1 C 6,1 C 4,4 C 97 % 1024,3 hPa 0,0 l/m 0 min 0 min 0 W/m 12,9 km/h (3 Bft) 97,87 %
27.01.2022 18:32 7,1 C 6,1 C 4,4 C 97 % 1024,3 hPa 0,0 l/m 0 min 0 min 0 W/m 12,9 km/h (3 Bft) 97,87 %
27.01.2022 18:34 7,1 C 6,1 C 4,4 C 97 % 1024,4 hPa 0,0 l/m 0 min 0 min 0 W/m 12,9 km/h (3 Bft) 95,65 %
27.01.2022 18:36 7,0 C 6,1 C 4,4 C 97 % 1024,4 hPa 0,0 l/m 0 min 0 min 0 W/m 9,7 km/h (2 Bft) 97,87 %
27.01.2022 18:38 7,0 C 6,1 C 4,4 C 97 % 1024,4 hPa 0,0 l/m 0 min 0 min 0 W/m 12,9 km/h (3 Bft) 95,74 %
27.01.2022 18:40 6,9 C 6,1 C 4,4 C 97 % 1024,4 hPa 0,0 l/m 0 min 0 min 0 W/m 12,9 km/h (3 Bft) 97,87 %
27.01.2022 18:42 6,9 C 6,1 C 4,4 C 97 % 1024,5 hPa 0,0 l/m 0 min 0 min 0 W/m 12,9 km/h (3 Bft) 97,87 %
27.01.2022 18:44 6,8 C 6,1 C 4,4 C 97 % 1024,6 hPa 0,0 l/m 0 min 0 min 0 W/m 19,3 km/h (3 Bft) 97,83 %
27.01.2022 18:46 6,8 C 6,1 C 4,4 C 97 % 1024,5 hPa 0,0 l/m 0 min 0 min 0 W/m 12,9 km/h (3 Bft) 97,87 %
27.01.2022 18:48 6,8 C 6,1 C 3,9 C 97 % 1024,7 hPa 0,0 l/m 0 min 0 min 0 W/m 16,1 km/h (3 Bft) 95,74 %
27.01.2022 18:50 6,8 C 6,1 C 3,9 C 97 % 1024,6 hPa 0,0 l/m 0 min 0 min 0 W/m 22,5 km/h (4 Bft) 95,74 %
27.01.2022 18:52 6,7 C 6,1 C 3,9 C 97 % 1024,7 hPa 0,0 l/m 0 min 0 min 0 W/m 19,3 km/h (3 Bft) 93,62 %
27.01.2022 18:54 6,7 C 6,1 C 3,9 C 97 % 1024,7 hPa 0,0 l/m 0 min 0 min 0 W/m 16,1 km/h (3 Bft) 95,74 %
27.01.2022 18:56 6,7 C 6,1 C 3,9 C 97 % 1024,7 hPa 0,0 l/m 0 min 0 min 0 W/m 12,9 km/h (3 Bft) 93,62 %
27.01.2022 18:58 6,7 C 6,1 C 3,9 C 97 % 1024,8 hPa 0,0 l/m 0 min 0 min 0 W/m 16,1 km/h (3 Bft) 93,48 %
27.01.2022 19:00 6,7 C 6,1 C 3,9 C 96 % 1024,8 hPa 0,0 l/m 0 min 0 min 0 W/m 19,3 km/h (3 Bft) 97,87 %
27.01.2022 19:02 6,6 C 6,1 C 3,9 C 96 % 1024,7 hPa 0,0 l/m 0 min 0 min 0 W/m 9,7 km/h (2 Bft) 95,92 %
27.01.2022 19:04 6,6 C 6,1 C 3,9 C 96 % 1024,7 hPa 0,0 l/m 0 min 0 min 0 W/m 16,1 km/h (3 Bft) 95,74 %
27.01.2022 19:06 6,6 C 6,1 C 3,9 C 96 % 1024,7 hPa 0,0 l/m 0 min 0 min 0 W/m 19,3 km/h (3 Bft) 95,74 %
27.01.2022 19:08 6,7 C 6,1 C 3,9 C 96 % 1024,7 hPa 0,0 l/m 0 min 0 min 0 W/m 16,1 km/h (3 Bft) 93,48 %
27.01.2022 19:10 6,7 C 6,1 C 3,9 C 96 % 1024,7 hPa 0,0 l/m 0 min 0 min 0 W/m 16,1 km/h (3 Bft) 95,74 %
27.01.2022 19:12 6,7 C 6,1 C 3,9 C 96 % 1024,8 hPa 0,0 l/m 0 min 0 min 0 W/m 6,4 km/h (2 Bft) 47,37 %
27.01.2022 19:14 6,7 C 6,1 C 3,9 C 96 % 1024,9 hPa 0,0 l/m 0 min 0 min 0 W/m 19,3 km/h (3 Bft) 97,87 %
27.01.2022 19:16 6,7 C 6,1 C 3,9 C 96 % 1024,9 hPa 0,0 l/m 0 min 0 min 0 W/m 16,1 km/h (3 Bft) 97,87 %
27.01.2022 19:18 6,7 C 6,1 C 3,9 C 96 % 1025,0 hPa 0,0 l/m 0 min 0 min 0 W/m 16,1 km/h (3 Bft) 97,87 %
27.01.2022 19:20 6,7 C 6,1 C 3,9 C 96 % 1025,0 hPa 0,0 l/m 0 min 0 min 0 W/m 16,1 km/h (3 Bft) 97,83 %
27.01.2022 19:22 6,7 C 6,1 C 3,9 C 96 % 1025,1 hPa 0,0 l/m 0 min 0 min 0 W/m 16,1 km/h (3 Bft) 93,62 %
27.01.2022 19:24 6,7 C 6,1 C 3,9 C 96 % 1025,1 hPa 0,0 l/m 0 min 0 min 0 W/m 9,7 km/h (2 Bft) 100,00 %
27.01.2022 19:26 6,7 C 6,1 C 3,9 C 96 % 1025,2 hPa 0,0 l/m 0 min 0 min 0 W/m 9,7 km/h (2 Bft) 95,74 %
27.01.2022 19:28 6,8 C 6,1 C 3,9 C 96 % 1025,2 hPa 0,0 l/m 0 min 0 min 0 W/m 9,7 km/h (2 Bft) 95,74 %
27.01.2022 19:30 6,8 C 6,1 C 3,9 C 96 % 1025,3 hPa 0,0 l/m 0 min 0 min 0 W/m 12,9 km/h (3 Bft) 97,87 %
27.01.2022 19:32 6,8 C 6,1 C 3,9 C 96 % 1025,3 hPa 0,0 l/m 0 min 0 min 0 W/m 12,9 km/h (3 Bft) 97,83 %
27.01.2022 19:34 6,8 C 6,1 C 3,9 C 96 % 1025,4 hPa 0,0 l/m 0 min 0 min 0 W/m 12,9 km/h (3 Bft) 97,87 %
27.01.2022 19:36 6,8 C 6,1 C 3,9 C 96 % 1025,4 hPa 0,0 l/m 0 min 0 min 0 W/m 22,5 km/h (4 Bft) 95,74 %
27.01.2022 19:38 6,8 C 6,1 C 4,4 C 95 % 1025,4 hPa 0,0 l/m 0 min 0 min 0 W/m 16,1 km/h (3 Bft) 97,87 %
27.01.2022 19:40 6,8 C 6,1 C 4,4 C 95 % 1025,4 hPa 0,0 l/m 0 min 0 min 0 W/m 12,9 km/h (3 Bft) 97,87 %
27.01.2022 19:42 6,8 C 6,1 C 4,4 C 95 % 1025,4 hPa 0,0 l/m 0 min 0 min 0 W/m 22,5 km/h (4 Bft) 95,83 %
27.01.2022 19:44 6,9 C 6,1 C 4,4 C 95 % 1025,4 hPa 0,0 l/m 0 min 0 min 0 W/m 16,1 km/h (3 Bft) 97,83 %
27.01.2022 19:46 6,9 C 6,1 C 4,4 C 95 % 1025,4 hPa 0,0 l/m 0 min 0 min 0 W/m 22,5 km/h (4 Bft) 95,74 %
27.01.2022 19:48 6,9 C 6,1 C 4,4 C 95 % 1025,4 hPa 0,0 l/m 0 min 0 min 0 W/m 12,9 km/h (3 Bft) 97,87 %
27.01.2022 19:50 6,9 C 6,1 C 4,4 C 95 % 1025,3 hPa 0,0 l/m 0 min 0 min 0 W/m 16,1 km/h (3 Bft) 97,87 %
27.01.2022 19:52 6,9 C 6,1 C 4,4 C 95 % 1025,4 hPa 0,0 l/m 0 min 0 min 0 W/m 12,9 km/h (3 Bft) 95,74 %
27.01.2022 19:54 6,9 C 6,1 C 4,4 C 95 % 1025,4 hPa 0,0 l/m 0 min 0 min 0 W/m 16,1 km/h (3 Bft) 97,87 %
27.01.2022 19:56 6,9 C 6,1 C 4,4 C 95 % 1025,3 hPa 0,0 l/m 0 min 0 min 0 W/m 16,1 km/h (3 Bft) 95,65 %
27.01.2022 19:58 6,9 C 6,1 C 3,9 C 94 % 1025,4 hPa 0,0 l/m 0 min 0 min 0 W/m 22,5 km/h (4 Bft) 97,87 %
27.01.2022 20:00 6,9 C 6,1 C 3,9 C 94 % 1025,5 hPa 0,0 l/m 0 min 0 min 0 W/m 16,1 km/h (3 Bft) 97,87 %
27.01.2022 20:02 6,9 C 6,1 C 4,4 C 94 % 1025,5 hPa 0,0 l/m 0 min 0 min 0 W/m 25,7 km/h (4 Bft) 97,92 %
27.01.2022 20:04 6,9 C 6,1 C 3,9 C 94 % 1025,5 hPa 0,0 l/m 0 min 0 min 0 W/m 16,1 km/h (3 Bft) 97,87 %
27.01.2022 20:06 6,9 C 6,1 C 3,9 C 94 % 1025,5 hPa 0,0 l/m 0 min 0 min 0 W/m 12,9 km/h (3 Bft) 100,00 %
27.01.2022 20:08 6,9 C 6,1 C 3,9 C 94 % 1025,4 hPa 0,0 l/m 0 min 0 min 0 W/m 16,1 km/h (3 Bft) 97,83 %
27.01.2022 20:10 6,9 C 6,1 C 3,9 C 94 % 1025,5 hPa 0,0 l/m 0 min 0 min 0 W/m 22,5 km/h (4 Bft) 100,00 %
27.01.2022 20:12 6,9 C 6,1 C 3,9 C 94 % 1025,5 hPa 0,0 l/m 0 min 0 min 0 W/m 25,7 km/h (4 Bft) 97,87 %
27.01.2022 20:14 6,9 C 6,1 C 3,9 C 94 % 1025,5 hPa 0,0 l/m 0 min 2 min 0 W/m 22,5 km/h (4 Bft) 97,87 %
27.01.2022 20:16 6,9 C 6,1 C 3,9 C 94 % 1025,5 hPa 0,0 l/m 0 min 0 min 0 W/m 22,5 km/h (4 Bft) 100,00 %
27.01.2022 20:18 6,9 C 6,1 C 3,9 C 94 % 1025,6 hPa 0,0 l/m 0 min 0 min 0 W/m 22,5 km/h (4 Bft) 100,00 %
27.01.2022 20:20 6,9 C 6,1 C 3,9 C 94 % 1025,6 hPa 0,0 l/m 0 min 0 min 0 W/m 19,3 km/h (3 Bft) 100,00 %
27.01.2022 20:22 6,9 C 6,1 C 3,9 C 94 % 1025,6 hPa 0,0 l/m 0 min 0 min 0 W/m 12,9 km/h (3 Bft) 100,00 %
27.01.2022 20:24 6,9 C 6,1 C 3,9 C 94 % 1025,7 hPa 0,0 l/m 0 min 0 min 0 W/m 16,1 km/h (3 Bft) 100,00 %
27.01.2022 20:26 6,9 C 6,1 C 3,9 C 93 % 1025,7 hPa 0,0 l/m 0 min 0 min 0 W/m 22,5 km/h (4 Bft) 97,87 %
27.01.2022 20:28 6,9 C 6,1 C 3,9 C 93 % 1025,8 hPa 0,0 l/m 0 min 0 min 0 W/m 29,0 km/h (5 Bft) 97,87 %
27.01.2022 20:30 6,8 C 6,1 C 3,9 C 93 % 1025,8 hPa 0,0 l/m 0 min 0 min 0 W/m 16,1 km/h (3 Bft) 100,00 %
27.01.2022 20:32 6,8 C 6,1 C 3,9 C 93 % 1025,8 hPa 0,0 l/m 0 min 0 min 0 W/m 29,0 km/h (5 Bft) 97,92 %
27.01.2022 20:34 6,8 C 6,1 C 3,9 C 93 % 1025,9 hPa 0,0 l/m 0 min 0 min 0 W/m 22,5 km/h (4 Bft) 100,00 %
27.01.2022 20:36 6,8 C 6,1 C 3,9 C 93 % 1026,0 hPa 0,0 l/m 0 min 0 min 0 W/m 19,3 km/h (3 Bft) 100,00 %
27.01.2022 20:38 6,9 C 6,1 C 3,9 C 93 % 1026,0 hPa 0,0 l/m 0 min 0 min 0 W/m 19,3 km/h (3 Bft) 97,87 %
27.01.2022 20:40 6,8 C 6,1 C 3,9 C 93 % 1025,9 hPa 0,0 l/m 0 min 0 min 0 W/m 19,3 km/h (3 Bft) 97,87 %
27.01.2022 20:42 6,9 C 6,1 C 3,9 C 93 % 1026,0 hPa 0,0 l/m 0 min 0 min 0 W/m 22,5 km/h (4 Bft) 97,83 %
27.01.2022 20:44 6,9 C 6,1 C 3,9 C 93 % 1026,1 hPa 0,0 l/m 0 min 0 min 0 W/m 19,3 km/h (3 Bft) 97,87 %
27.01.2022 20:46 6,9 C 6,1 C 3,9 C 92 % 1026,1 hPa 0,0 l/m 0 min 0 min 0 W/m 22,5 km/h (4 Bft) 95,74 %
27.01.2022 20:48 6,8 C 6,1 C 3,9 C 92 % 1026,1 hPa 0,0 l/m 0 min 0 min 0 W/m 25,7 km/h (4 Bft) 97,87 %
27.01.2022 20:50 6,8 C 6,1 C 3,9 C 92 % 1026,1 hPa 0,0 l/m 0 min 0 min 0 W/m 16,1 km/h (3 Bft) 97,87 %
27.01.2022 20:52 6,8 C 6,1 C 3,9 C 92 % 1026,2 hPa 0,0 l/m 0 min 0 min 0 W/m 12,9 km/h (3 Bft) 97,87 %
27.01.2022 20:54 6,8 C 6,1 C 3,9 C 92 % 1026,3 hPa 0,0 l/m 0 min 0 min 0 W/m 19,3 km/h (3 Bft) 97,83 %
27.01.2022 20:56 6,8 C 6,1 C 3,9 C 92 % 1026,3 hPa 0,0 l/m 0 min 0 min 0 W/m 16,1 km/h (3 Bft) 97,87 %
27.01.2022 20:58 6,7 C 6,1 C 3,3 C 92 % 1026,2 hPa 0,0 l/m 0 min 0 min 0 W/m 12,9 km/h (3 Bft) 97,87 %
27.01.2022 21:00 6,7 C 5,6 C 3,3 C 92 % 1026,2 hPa 0,0 l/m 0 min 0 min 0 W/m 25,7 km/h (4 Bft) 97,87 %
27.01.2022 21:02 6,6 C 5,6 C 3,3 C 92 % 1026,2 hPa 0,0 l/m 0 min 0 min 0 W/m 19,3 km/h (3 Bft) 97,87 %
27.01.2022 21:04 6,6 C 5,6 C 3,3 C 92 % 1026,2 hPa 0,0 l/m 0 min 0 min 0 W/m 29,0 km/h (5 Bft) 97,87 %
27.01.2022 21:06 6,6 C 5,6 C 3,3 C 92 % 1026,3 hPa 0,0 l/m 0 min 0 min 0 W/m 19,3 km/h (3 Bft) 95,65 %
27.01.2022 21:08 6,5 C 5,6 C 3,3 C 92 % 1026,3 hPa 0,0 l/m 0 min 0 min 0 W/m 16,1 km/h (3 Bft) 100,00 %
27.01.2022 21:10 6,5 C 5,6 C 3,3 C 92 % 1026,4 hPa 0,0 l/m 0 min 0 min 0 W/m 16,1 km/h (3 Bft) 100,00 %
27.01.2022 21:12 6,5 C 5,6 C 3,3 C 92 % 1026,4 hPa 0,0 l/m 0 min 0 min 0 W/m 32,2 km/h (5 Bft) 97,87 %
27.01.2022 21:14 6,4 C 5,6 C 3,3 C 92 % 1026,4 hPa 0,0 l/m 0 min 0 min 0 W/m 16,1 km/h (3 Bft) 100,00 %
27.01.2022 21:16 6,4 C 5,6 C 3,3 C 92 % 1026,4 hPa 0,0 l/m 0 min 0 min 0 W/m 12,9 km/h (3 Bft) 100,00 %
27.01.2022 21:18 6,4 C 5,6 C 3,3 C 92 % 1026,5 hPa 0,0 l/m 0 min 0 min 0 W/m 19,3 km/h (3 Bft) 100,00 %
27.01.2022 21:20 6,3 C 5,6 C 3,3 C 92 % 1026,6 hPa 0,0 l/m 0 min 0 min 0 W/m 25,7 km/h (4 Bft) 100,00 %
27.01.2022 21:22 6,3 C 5,6 C 3,3 C 92 % 1026,7 hPa 0,0 l/m 0 min 0 min 0 W/m 12,9 km/h (3 Bft) 100,00 %
27.01.2022 21:24 6,3 C 5,6 C 3,3 C 92 % 1026,7 hPa 0,0 l/m 0 min 0 min 0 W/m 12,9 km/h (3 Bft) 100,00 %
27.01.2022 21:26 6,3 C 5,6 C 3,3 C 92 % 1026,7 hPa 0,0 l/m 0 min 0 min 0 W/m 22,5 km/h (4 Bft) 100,00 %
27.01.2022 21:28 6,2 C 5,6 C 3,3 C 92 % 1026,7 hPa 0,0 l/m 0 min 0 min 0 W/m 19,3 km/h (3 Bft) 100,00 %
27.01.2022 21:30 6,2 C 5,6 C 3,3 C 92 % 1026,7 hPa 0,0 l/m 0 min 0 min 0 W/m 9,7 km/h (2 Bft) 97,87 %
27.01.2022 21:32 6,2 C 5,6 C 3,3 C 92 % 1026,7 hPa 0,0 l/m 0 min 0 min 0 W/m 16,1 km/h (3 Bft) 97,87 %
27.01.2022 21:34 6,2 C 5,6 C 3,3 C 92 % 1026,7 hPa 0,0 l/m 0 min 0 min 0 W/m 19,3 km/h (3 Bft) 100,00 %
27.01.2022 21:36 6,2 C 5,6 C 3,3 C 92 % 1026,7 hPa 0,0 l/m 0 min 0 min 0 W/m 12,9 km/h (3 Bft) 97,87 %
27.01.2022 21:38 6,2 C 5,6 C 3,3 C 92 % 1026,8 hPa 0,0 l/m 0 min 0 min 0 W/m 19,3 km/h (3 Bft) 95,74 %
27.01.2022 21:40 6,2 C 5,6 C 3,3 C 92 % 1026,8 hPa 0,0 l/m 0 min 0 min 0 W/m 19,3 km/h (3 Bft) 97,83 %
27.01.2022 21:42 6,1 C 5,6 C 3,3 C 92 % 1026,8 hPa 0,0 l/m 0 min 0 min 0 W/m 12,9 km/h (3 Bft) 95,83 %
27.01.2022 21:44 6,1 C 5,0 C 3,3 C 92 % 1026,8 hPa 0,0 l/m 0 min 0 min 0 W/m 12,9 km/h (3 Bft) 95,74 %
27.01.2022 21:46 6,1 C 5,6 C 3,3 C 92 % 1026,9 hPa 0,0 l/m 0 min 0 min 0 W/m 12,9 km/h (3 Bft) 93,48 %
27.01.2022 21:48 6,1 C 5,0 C 3,3 C 92 % 1026,9 hPa 0,0 l/m 0 min 0 min 0 W/m 12,9 km/h (3 Bft) 95,74 %
27.01.2022 21:50 6,0 C 5,0 C 3,3 C 92 % 1026,9 hPa 0,0 l/m 0 min 0 min 0 W/m 19,3 km/h (3 Bft) 95,74 %
27.01.2022 21:52 6,1 C 5,0 C 3,3 C 93 % 1026,9 hPa 0,0 l/m 0 min 0 min 0 W/m 19,3 km/h (3 Bft) 95,74 %
27.01.2022 21:54 6,0 C 5,0 C 3,3 C 93 % 1027,0 hPa 0,0 l/m 0 min 0 min 0 W/m 12,9 km/h (3 Bft) 97,87 %
27.01.2022 21:56 6,0 C 5,0 C 3,3 C 93 % 1027,0 hPa 0,0 l/m 0 min 0 min 0 W/m 22,5 km/h (4 Bft) 95,74 %
27.01.2022 21:58 6,0 C 5,0 C 3,3 C 93 % 1027,1 hPa 0,0 l/m 0 min 0 min 0 W/m 16,1 km/h (3 Bft) 95,65 %
27.01.2022 22:00 5,9 C 5,0 C 3,3 C 93 % 1027,1 hPa 0,0 l/m 0 min 0 min 0 W/m 16,1 km/h (3 Bft) 93,62 %
27.01.2022 22:02 5,9 C 5,0 C 3,3 C 93 % 1027,2 hPa 0,0 l/m 0 min 0 min 0 W/m 19,3 km/h (3 Bft) 89,36 %
27.01.2022 22:04 5,9 C 5,0 C 3,3 C 92 % 1027,2 hPa 0,0 l/m 0 min 0 min 0 W/m 19,3 km/h (3 Bft) 95,74 %
27.01.2022 22:06 5,9 C 5,0 C 3,3 C 92 % 1027,2 hPa 0,0 l/m 0 min 0 min 0 W/m 16,1 km/h (3 Bft) 91,49 %
27.01.2022 22:08 5,9 C 5,0 C 2,8 C 92 % 1027,2 hPa 0,0 l/m 0 min 0 min 0 W/m 12,9 km/h (3 Bft) 95,74 %
27.01.2022 22:10 5,9 C 5,0 C 2,8 C 92 % 1027,3 hPa 0,0 l/m 0 min 0 min 0 W/m 12,9 km/h (3 Bft) 95,65 %
27.01.2022 22:12 5,8 C 5,0 C 2,8 C 92 % 1027,3 hPa 0,0 l/m 0 min 0 min 0 W/m 12,9 km/h (3 Bft) 93,62 %
27.01.2022 22:14 5,8 C 5,0 C 2,8 C 92 % 1027,3 hPa 0,0 l/m 0 min 0 min 0 W/m 16,1 km/h (3 Bft) 93,62 %
27.01.2022 22:16 5,8 C 5,0 C 2,8 C 92 % 1027,4 hPa 0,0 l/m 0 min 0 min 0 W/m 12,9 km/h (3 Bft) 95,74 %
27.01.2022 22:18 5,8 C 5,0 C 2,8 C 92 % 1027,4 hPa 0,0 l/m 0 min 0 min 0 W/m 19,3 km/h (3 Bft) 93,62 %
27.01.2022 22:20 5,8 C 5,0 C 2,8 C 92 % 1027,4 hPa 0,0 l/m 0 min 0 min 0 W/m 19,3 km/h (3 Bft) 95,74 %
27.01.2022 22:22 5,8 C 5,0 C 2,8 C 93 % 1027,5 hPa 0,0 l/m 0 min 0 min 0 W/m 12,9 km/h (3 Bft) 95,65 %
27.01.2022 22:24 5,7 C 5,0 C 2,8 C 93 % 1027,5 hPa 0,0 l/m 0 min 0 min 0 W/m 16,1 km/h (3 Bft) 93,62 %
27.01.2022 22:26 5,7 C 5,0 C 2,8 C 93 % 1027,5 hPa 0,0 l/m 0 min 0 min 0 W/m 12,9 km/h (3 Bft) 95,74 %
27.01.2022 22:28 5,7 C 5,0 C 2,8 C 93 % 1027,5 hPa 0,0 l/m 0 min 0 min 0 W/m 16,1 km/h (3 Bft) 95,74 %
27.01.2022 22:30 5,7 C 5,0 C 2,8 C 93 % 1027,6 hPa 0,0 l/m 0 min 0 min 0 W/m 16,1 km/h (3 Bft) 95,74 %
27.01.2022 22:32 5,7 C 5,0 C 2,8 C 93 % 1027,5 hPa 0,0 l/m 0 min 0 min 0 W/m 9,7 km/h (2 Bft) 95,74 %
27.01.2022 22:34 5,7 C 5,0 C 2,8 C 93 % 1027,6 hPa 0,0 l/m 0 min 0 min 0 W/m 16,1 km/h (3 Bft) 97,83 %
27.01.2022 22:36 5,7 C 5,0 C 2,8 C 93 % 1027,5 hPa 0,0 l/m 0 min 0 min 0 W/m 9,7 km/h (2 Bft) 95,74 %
27.01.2022 22:38 5,6 C 5,0 C 2,8 C 93 % 1027,6 hPa 0,0 l/m 0 min 0 min 0 W/m 12,9 km/h (3 Bft) 97,87 %
27.01.2022 22:40 5,6 C 5,0 C 2,8 C 93 % 1027,5 hPa 0,0 l/m 0 min 0 min 0 W/m 12,9 km/h (3 Bft) 95,74 %
27.01.2022 22:42 5,6 C 5,0 C 2,8 C 93 % 1027,6 hPa 0,0 l/m 0 min 0 min 0 W/m 12,9 km/h (3 Bft) 97,87 %
27.01.2022 22:44 5,6 C 5,0 C 2,8 C 93 % 1027,7 hPa 0,0 l/m 0 min 0 min 0 W/m 9,7 km/h (2 Bft) 95,74 %
27.01.2022 22:46 5,6 C 5,0 C 2,8 C 93 % 1027,6 hPa 0,0 l/m 0 min 0 min 0 W/m 12,9 km/h (3 Bft) 95,65 %
27.01.2022 22:48 5,6 C 5,0 C 2,8 C 93 % 1027,7 hPa 0,0 l/m 0 min 0 min 0 W/m 19,3 km/h (3 Bft) 97,87 %
27.01.2022 22:50 5,6 C 5,0 C 2,8 C 93 % 1027,7 hPa 0,0 l/m 0 min 0 min 0 W/m 16,1 km/h (3 Bft) 97,87 %
27.01.2022 22:52 5,6 C 5,0 C 2,8 C 93 % 1027,6 hPa 0,0 l/m 0 min 0 min 0 W/m 9,7 km/h (2 Bft) 95,74 %
27.01.2022 22:54 5,6 C 5,0 C 2,8 C 93 % 1027,7 hPa 0,0 l/m 0 min 0 min 0 W/m 9,7 km/h (2 Bft) 97,87 %
27.01.2022 22:56 5,6 C 5,0 C 2,8 C 93 % 1027,7 hPa 0,0 l/m 0 min 0 min 0 W/m 12,9 km/h (3 Bft) 97,87 %
27.01.2022 22:58 5,6 C 5,0 C 2,8 C 93 % 1027,8 hPa 0,0 l/m 0 min 0 min 0 W/m 12,9 km/h (3 Bft) 100,00 %
27.01.2022 23:00 5,6 C 5,0 C 2,8 C 93 % 1027,7 hPa 0,0 l/m 0 min 0 min 0 W/m 19,3 km/h (3 Bft) 100,00 %
27.01.2022 23:02 5,6 C 5,0 C 2,8 C 93 % 1027,7 hPa 0,0 l/m 0 min 0 min 0 W/m 19,3 km/h (3 Bft) 100,00 %
27.01.2022 23:04 5,7 C 5,0 C 2,8 C 93 % 1027,8 hPa 0,0 l/m 0 min 0 min 0 W/m 16,1 km/h (3 Bft) 100,00 %
27.01.2022 23:06 5,7 C 5,0 C 3,3 C 93 % 1027,9 hPa 0,0 l/m 0 min 0 min 0 W/m 32,2 km/h (5 Bft) 100,00 %
27.01.2022 23:08 5,7 C 5,0 C 3,3 C 93 % 1027,8 hPa 0,0 l/m 0 min 0 min 0 W/m 16,1 km/h (3 Bft) 100,00 %
27.01.2022 23:10 5,7 C 5,0 C 3,3 C 93 % 1027,9 hPa 0,0 l/m 0 min 0 min 0 W/m 19,3 km/h (3 Bft) 100,00 %
27.01.2022 23:12 5,7 C 5,0 C 3,3 C 93 % 1028,0 hPa 0,0 l/m 0 min 0 min 0 W/m 16,1 km/h (3 Bft) 100,00 %
27.01.2022 23:14 5,7 C 5,0 C 3,3 C 93 % 1028,1 hPa 0,0 l/m 0 min 0 min 0 W/m 16,1 km/h (3 Bft) 97,83 %
27.01.2022 23:16 5,8 C 5,0 C 3,3 C 93 % 1028,2 hPa 0,0 l/m 0 min 0 min 0 W/m 12,9 km/h (3 Bft) 100,00 %
27.01.2022 23:18 5,8 C 5,0 C 3,3 C 93 % 1028,1 hPa 0,0 l/m 0 min 0 min 0 W/m 16,1 km/h (3 Bft) 100,00 %
27.01.2022 23:20 5,8 C 5,0 C 3,3 C 93 % 1028,1 hPa 0,0 l/m 0 min 0 min 0 W/m 16,1 km/h (3 Bft) 100,00 %
27.01.2022 23:22 5,8 C 5,0 C 3,3 C 93 % 1028,2 hPa 0,0 l/m 0 min 0 min 0 W/m 19,3 km/h (3 Bft) 100,00 %
27.01.2022 23:24 5,8 C 5,0 C 2,8 C 93 % 1028,2 hPa 0,0 l/m 0 min 0 min 0 W/m 12,9 km/h (3 Bft) 100,00 %
27.01.2022 23:26 5,8 C 5,0 C 2,8 C 93 % 1028,2 hPa 0,0 l/m 0 min 0 min 0 W/m 12,9 km/h (3 Bft) 100,00 %
27.01.2022 23:28 5,8 C 5,0 C 3,3 C 93 % 1028,2 hPa 0,0 l/m 0 min 0 min 0 W/m 12,9 km/h (3 Bft) 100,00 %
27.01.2022 23:30 5,8 C 5,0 C 3,3 C 93 % 1028,2 hPa 0,0 l/m 0 min 0 min 0 W/m 12,9 km/h (3 Bft) 100,00 %
27.01.2022 23:32 5,8 C 5,0 C 2,8 C 93 % 1028,2 hPa 0,0 l/m 0 min 0 min 0 W/m 12,9 km/h (3 Bft) 100,00 %
27.01.2022 23:34 5,7 C 5,0 C 2,8 C 93 % 1028,2 hPa 0,0 l/m 0 min 0 min 0 W/m 12,9 km/h (3 Bft) 100,00 %
27.01.2022 23:36 5,7 C 5,0 C 2,8 C 93 % 1028,1 hPa 0,0 l/m 0 min 0 min 0 W/m 12,9 km/h (3 Bft) 100,00 %
27.01.2022 23:38 5,7 C 5,0 C 2,8 C 93 % 1028,2 hPa 0,0 l/m 0 min 0 min 0 W/m 9,7 km/h (2 Bft) 100,00 %
27.01.2022 23:40 5,6 C 5,0 C 2,8 C 93 % 1028,2 hPa 0,0 l/m 0 min 0 min 0 W/m 19,3 km/h (3 Bft) 100,00 %
27.01.2022 23:42 5,6 C 5,0 C 2,8 C 93 % 1028,2 hPa 0,0 l/m 0 min 0 min 0 W/m 12,9 km/h (3 Bft) 100,00 %
27.01.2022 23:44 5,6 C 5,0 C 2,8 C 93 % 1028,3 hPa 0,0 l/m 0 min 0 min 0 W/m 12,9 km/h (3 Bft) 97,87 %
27.01.2022 23:46 5,6 C 5,0 C 2,8 C 93 % 1028,2 hPa 0,0 l/m 0 min 0 min 0 W/m 12,9 km/h (3 Bft) 100,00 %
27.01.2022 23:48 5,5 C 5,0 C 2,8 C 93 % 1028,3 hPa 0,0 l/m 0 min 0 min 0 W/m 22,5 km/h (4 Bft) 100,00 %
27.01.2022 23:50 5,5 C 5,0 C 2,8 C 92 % 1028,4 hPa 0,0 l/m 0 min 0 min 0 W/m 16,1 km/h (3 Bft) 100,00 %
27.01.2022 23:52 5,5 C 5,0 C 2,8 C 92 % 1028,4 hPa 0,0 l/m 0 min 0 min 0 W/m 12,9 km/h (3 Bft) 100,00 %
27.01.2022 23:54 5,4 C 5,0 C 2,8 C 92 % 1028,3 hPa 0,0 l/m 0 min 0 min 0 W/m 12,9 km/h (3 Bft) 100,00 %
27.01.2022 23:56 5,4 C 4,4 C 2,8 C 92 % 1028,4 hPa 0,0 l/m 0 min 0 min 0 W/m 12,9 km/h (3 Bft) 100,00 %
27.01.2022 23:58 5,4 C 4,4 C 2,8 C 92 % 1028,4 hPa 0,0 l/m 0 min 0 min 0 W/m 9,7 km/h (2 Bft) 95,74 %
_ Min-Zeit 02:32 00:02 00:00 01:06 14:26 - - - - 00:02 00:02
Minimum _ 2,7 C 2,2 C 0,0 C 89 % 1022,8 hPa - - - - 3,2 km/h (1 Bft) 5,26 %
_ Max-Zeit 16:48 16:14 15:30 13:38 00:02 09:56 00:00 09:16 12:08 12:44 00:00
Maximum _ 7,7 C 7,2 C 5,0 C 99 % 1030,2 hPa 0,2 l/m 0 min 2 min 113 W/m 41,8 km/h
S-SO (6 Bft)
100,00 %
Durchschnitt _ 5,2 C 4,6 C 2,3 C 94 % 1025,6 hPa #1,6 l/m #0 min. #1:30 h 29 W/m 18,8 km/h (3 Bft) 97,36 %
© 2022 W. Hausmann